GFSNGP_925_spd_000.txt.gz
Wind_Speed
2 4 1 1 2 1 4 4 5 7 6 6 6 7 7 7 7 8 6 5 5 3 4 7 11 12 13 15 18 19 21 23 21 23 20 14 16 18 15 16 11 8 9 14
1 5 6 3 5 5 4 4 4 9 6 4 6 8 7 6 6 5 3 2 3 3 5 7 8 7 10 12 13 14 18 17 21 21 19 14 14 14 14 15 8 7 16 14
3 5 6 5 5 3 2 4 3 6 6 5 5 6 6 6 6 5 3 4 3 4 3 7 4 5 8 9 10 10 11 13 19 20 18 18 17 14 18 12 14 16 11 5
2 4 1 5 5 4 9 3 11 11 7 6 7 5 6 5 6 6 6 4 1 2 3 3 1 5 7 6 7 11 11 16 18 18 20 19 11 13 11 14 17 8 2 3
3 3 5 6 4 6 5 3 4 8 7 5 7 5 4 6 6 5 4 2 4 3 5 6 4 6 7 7 9 13 14 15 17 18 18 16 16 20 16 21 7 2 2 5
3 4 6 6 2 4 5 4 9 7 8 7 7 3 4 7 4 4 4 4 4 3 5 4 10 13 9 8 10 12 14 16 17 16 18 20 21 23 20 7 1 5 5 7
3 2 8 7 6 1 5 7 9 8 7 7 5 5 4 1 2 4 3 4 7 6 6 13 14 7 8 10 11 11 12 17 17 16 15 14 11 7 7 2 7 5 6 7
3 2 7 7 5 7 6 3 7 6 6 6 6 5 4 3 2 8 12 13 13 13 13 10 10 16 15 14 12 11 15 16 14 13 13 12 12 10 4 7 5 4 7 7
9 7 5 6 6 3 6 6 6 7 6 7 6 4 6 4 8 12 10 11 11 11 10 11 19 22 17 16 12 15 13 10 9 12 11 13 7 1 4 4 3 4 5 6
3 5 7 7 2 5 5 6 6 7 7 7 5 5 7 6 7 8 8 9 10 12 15 17 22 17 13 15 18 20 14 9 10 9 11 11 8 3 4 3 4 3 4 5
4 4 2 2 3 7 7 7 7 7 7 7 10 7 7 5 6 4 5 8 14 17 18 20 21 21 23 20 21 22 15 9 6 6 8 6 6 5 7 6 4 5 5 4
7 7 6 5 7 8 9 8 8 8 8 11 13 7 9 6 3 3 7 15 18 19 20 20 22 26 24 15 18 11 12 12 7 6 5 4 4 5 7 7 7 7 7 5
5 6 5 3 9 8 7 7 7 13 16 10 11 11 7 3 2 8 13 18 19 21 21 21 26 24 24 18 19 21 18 15 12 6 2 2 2 7 11 10 9 8 8 6
4 7 3 4 6 8 11 14 20 19 19 16 12 7 4 5 9 10 15 18 20 21 22 25 23 24 23 18 17 20 14 10 13 13 7 4 2 7 9 9 11 10 9 6
8 2 6 7 7 10 18 18 11 8 10 9 6 5 10 8 8 13 18 19 20 20 19 20 19 23 21 18 17 16 13 10 14 10 5 4 6 6 5 8 9 8 8 7
6 6 7 9 11 11 10 8 9 5 5 4 5 7 7 8 12 17 17 16 16 19 21 21 20 23 21 19 16 15 11 13 6 5 5 7 9 5 6 6 8 8 8 8
7 6 9 10 10 6 6 6 8 6 4 1 3 5 8 13 16 17 18 15 15 18 20 21 23 22 20 19 15 13 12 11 8 9 8 9 9 8 9 7 11 11 11 8
13 14 15 11 9 8 6 6 6 2 2 4 5 8 13 15 15 17 17 16 18 18 18 18 20 22 23 19 17 14 14 12 15 14 12 11 14 12 10 8 10 10 10 8
23 17 14 12 10 9 6 2 3 5 8 9 9 12 14 16 15 14 15 14 18 21 23 22 21 20 21 19 19 15 16 16 15 15 13 11 14 13 12 11 11 9 11 12
14 17 11 7 4 7 5 5 7 10 11 10 12 14 15 16 11 13 15 19 20 22 20 23 20 25 19 22 22 18 16 16 15 14 13 12 15 15 12 13 12 11 11 10
12 8 7 6 6 6 7 9 10 12 12 11 11 13 13 16 14 14 18 15 24 17 17 22 25 27 22 24 20 17 18 18 19 19 19 17 16 15 16 14 14 13 10 9
6 5 6 6 6 9 9 9 9 10 11 13 14 16 14 16 17 18 16 18 23 17 21 24 26 26 23 23 21 17 17 20 22 22 24 24 19 17 17 17 15 13 13 12
2 5 7 8 9 10 13 14 14 15 16 18 18 19 18 16 14 12 15 19 22 23 25 26 26 25 23 22 20 18 19 21 22 24 26 25 25 22 19 19 18 17 17 15
8 9 10 11 10 11 13 18 17 16 17 18 19 18 15 15 13 14 16 21 21 21 23 25 23 23 23 21 21 20 24 26 27 29 30 26 25 25 25 24 24 22 21 20
7 9 11 12 12 16 18 20 19 18 18 17 14 10 7 10 15 19 20 23 22 21 23 23 22 22 22 22 20 22 24 26 29 31 32 32 29 28 26 26 25 23 20 17
13 14 15 13 13 15 18 18 14 12 9 13 14 15 15 15 15 18 21 19 18 19 19 18 21 22 22 20 20 22 25 28 29 30 30 30 31 31 30 28 26 24 24 23
13 14 15 18 19 20 18 14 10 14 16 18 19 18 18 17 16 15 15 15 16 17 17 19 19 20 19 20 23 24 22 23 25 28 29 30 31 31 31 30 26 25 22 21

GFSNGP_925_spd_006.txt.gz
Wind_Speed
2 4 2 1 4 6 6 5 6 5 7 6 10 10 10 8 7 7 6 6 6 6 12 13 13 13 10 8 9 9 9 10 11 15 19 22 22 21 19 18 16 17 19 10
0 4 5 3 5 6 4 4 7 3 7 5 4 8 8 10 9 7 7 7 7 10 16 17 18 15 12 12 11 12 13 13 14 17 19 23 24 21 18 14 13 10 9 10
4 3 5 6 8 9 5 4 6 6 8 6 5 9 12 9 9 9 7 7 7 10 18 21 17 15 14 12 14 15 15 16 17 17 20 24 22 19 16 14 17 13 16 9
2 3 2 6 2 4 5 4 6 3 5 10 5 3 6 6 9 8 7 7 8 13 15 16 13 13 12 14 16 16 16 18 19 18 22 25 22 19 18 17 16 13 10 2
4 3 5 5 5 7 8 8 9 7 4 5 5 4 5 8 7 8 8 14 13 11 10 9 8 8 11 15 15 14 18 21 19 17 22 24 21 19 18 16 12 7 5 2
3 4 6 7 3 4 3 5 8 8 8 8 7 3 9 9 7 11 12 7 6 5 5 3 3 6 7 11 15 19 20 22 19 17 22 20 18 17 12 7 6 8 6 1
2 3 8 7 2 2 5 7 6 9 9 9 6 6 2 4 6 8 7 10 10 8 4 0 1 4 11 14 16 17 19 21 19 19 21 17 16 14 13 10 8 7 4 2
3 2 8 6 3 7 6 1 6 8 8 14 6 6 5 7 7 14 16 13 8 5 2 2 5 9 11 13 15 19 21 22 22 24 20 15 15 13 9 7 9 7 4 4
9 6 4 6 4 3 2 3 5 7 7 11 8 7 8 7 10 14 14 11 6 2 2 5 8 10 11 14 19 21 21 18 23 19 11 12 14 11 7 7 7 6 7 7
2 4 7 8 6 6 6 7 4 6 7 10 7 7 6 7 7 10 9 6 3 1 5 9 10 11 11 18 19 20 16 16 19 12 9 10 11 8 7 6 8 11 11 10
5 8 6 8 8 9 5 5 5 4 6 8 8 7 11 10 10 10 7 5 2 4 6 11 12 13 16 18 17 16 15 16 19 15 11 10 8 7 5 5 9 13 12 10
6 9 4 7 5 2 6 8 6 7 6 5 8 11 12 9 11 9 8 5 3 5 8 12 14 17 18 13 11 13 16 15 19 17 16 11 11 10 7 7 8 9 11 12
6 1 5 5 4 3 5 4 5 6 7 9 12 17 14 11 10 8 6 5 5 7 10 12 15 17 15 10 12 14 16 17 18 16 15 12 13 16 12 9 9 9 10 11
5 3 5 3 5 1 3 9 17 18 19 20 21 16 11 7 7 8 8 8 6 8 11 14 15 17 13 11 14 14 15 15 16 17 12 14 16 19 17 16 13 12 11 10
5 6 1 3 8 8 14 17 14 12 15 12 14 10 10 9 8 9 9 7 7 9 12 13 13 13 11 15 15 16 16 17 17 16 15 19 15 15 16 17 17 15 13 12
5 5 7 10 11 11 14 13 16 11 5 4 8 8 11 9 8 9 9 7 7 11 12 11 12 12 15 15 17 18 18 17 16 14 13 11 9 13 15 17 18 17 16 14
4 5 8 11 12 13 13 12 10 8 11 7 8 10 9 9 10 12 9 8 10 11 12 14 15 14 15 16 15 20 21 20 18 18 17 18 16 16 17 15 17 19 19 15
15 15 14 12 11 11 6 7 8 5 7 8 9 9 9 10 14 12 13 12 13 13 14 14 13 10 12 15 18 21 20 18 21 23 22 21 20 19 20 18 17 18 20 16
21 17 17 15 11 8 6 4 4 4 5 6 8 10 13 15 14 16 14 14 16 15 16 13 11 12 14 17 19 21 21 22 24 24 22 23 21 20 20 21 20 19 20 21
10 10 9 6 5 5 4 4 6 8 9 8 10 11 13 17 14 13 11 15 18 18 14 13 14 17 20 23 20 20 22 22 23 23 20 20 20 20 20 21 21 21 21 23
7 5 6 5 4 4 4 6 8 10 9 9 9 13 14 16 17 14 11 12 21 11 11 14 16 18 18 20 20 22 22 21 22 22 20 20 22 22 24 25 27 26 26 25
2 2 2 3 6 7 7 8 8 9 10 11 12 14 15 18 18 17 16 19 24 13 11 14 16 17 19 20 22 22 20 20 21 22 21 21 23 26 27 28 28 30 30 30
3 4 4 3 5 7 9 10 10 10 12 14 16 18 18 21 20 14 14 16 14 13 14 17 20 18 17 21 21 19 15 17 18 18 20 22 23 24 25 26 28 29 30 30
2 2 5 8 9 13 15 18 17 18 19 19 19 19 17 21 25 20 21 22 21 21 21 21 17 14 14 15 14 18 18 17 14 16 18 18 19 20 22 24 25 27 27 27
10 11 13 15 16 14 17 20 19 20 22 22 22 22 23 23 19 26 23 24 24 25 20 16 12 10 10 10 12 14 17 18 17 18 17 18 19 22 23 25 25 26 28 28
13 14 13 11 12 12 13 15 15 17 19 20 20 18 23 26 26 26 25 25 23 23 13 7 7 9 14 16 16 14 12 12 13 14 15 17 19 21 23 25 24 25 26 28
9 12 12 12 14 17 19 19 19 19 20 21 23 24 24 24 25 27 28 23 23 9 4 3 7 12 14 13 12 12 12 13 14 15 17 20 22 25 27 28 28 29 26 26

GFSNGP_925_spd_009.txt.gz
Wind_Speed
1 1 1 2 5 8 7 4 6 4 8 6 9 12 11 10 13 14 13 11 10 10 14 14 15 13 11 12 10 9 10 11 11 12 14 16 21 21 19 16 11 12 12 8
4 1 3 3 5 7 6 3 9 5 12 9 0 7 11 14 16 16 14 12 11 14 17 16 15 13 13 12 10 9 13 14 14 15 16 17 21 21 18 14 11 12 10 8
3 3 3 5 9 11 6 5 7 8 8 6 6 11 15 16 17 16 14 13 12 14 16 18 17 14 13 10 9 11 14 16 16 17 18 17 21 19 15 13 12 10 10 7
2 1 2 4 2 2 10 6 13 3 4 6 2 3 8 14 18 15 14 13 11 15 14 13 12 11 10 8 9 13 15 14 16 19 18 17 20 17 14 14 12 10 8 6
3 3 5 4 4 6 7 6 12 12 5 3 4 3 5 14 14 15 14 14 13 13 11 8 9 7 5 6 8 9 13 17 17 19 18 15 16 16 16 12 9 7 5 5
3 2 5 5 2 3 3 4 2 9 7 8 8 4 6 13 15 12 12 11 10 9 9 9 7 4 2 4 9 12 13 15 18 18 15 14 16 16 14 11 10 7 6 5
2 3 7 6 1 2 3 4 2 7 7 12 7 6 2 5 8 15 14 14 14 12 10 7 6 3 2 7 9 10 15 18 18 15 15 17 15 13 13 11 9 8 7 6
3 1 6 5 3 5 4 2 2 7 9 14 10 6 4 6 9 16 18 17 17 15 11 8 4 3 5 7 9 14 16 16 13 15 17 13 10 10 11 8 7 8 8 8
7 4 3 5 4 2 1 2 2 3 5 8 6 7 8 9 10 14 17 14 13 11 9 4 2 3 6 8 11 15 15 13 11 14 13 8 8 9 8 6 7 7 8 9
1 2 7 10 9 8 7 10 5 6 6 9 12 10 8 10 12 14 13 13 8 8 5 2 3 5 8 9 13 14 12 11 12 13 14 11 9 10 7 7 7 7 10 10
4 8 5 7 9 10 8 5 6 5 5 9 10 12 14 13 12 16 15 6 8 6 4 3 4 7 8 11 12 8 8 11 13 14 14 13 12 11 9 8 7 7 9 10
5 8 4 5 3 2 3 4 5 6 2 2 8 11 15 10 12 12 9 11 7 5 3 4 6 9 10 9 6 7 9 9 13 15 14 12 12 10 13 12 10 10 10 12
5 1 4 4 6 3 4 6 2 4 5 9 11 16 17 12 13 9 9 8 7 5 4 5 7 10 10 6 6 10 11 12 12 12 12 12 9 10 13 13 13 13 12 12
4 2 4 1 3 6 9 15 21 21 21 22 22 20 15 9 3 9 10 8 6 5 6 7 9 8 4 4 9 11 12 13 15 14 12 12 11 12 13 14 14 12 13 13
9 2 4 8 10 11 14 17 17 15 15 18 17 12 7 7 13 10 7 7 6 7 8 9 9 5 5 9 11 13 13 13 16 16 16 16 17 17 13 12 13 12 13 15
6 10 11 11 12 13 14 14 14 8 10 10 7 10 10 10 9 7 7 8 8 10 10 10 9 9 10 11 13 13 12 16 19 18 16 15 15 14 11 11 12 14 15 15
4 7 10 12 12 12 12 10 10 6 3 6 9 7 8 9 9 10 11 10 12 16 15 11 14 14 14 10 10 11 13 17 19 20 15 15 16 17 16 14 14 16 15 18
16 15 14 12 11 10 6 5 6 5 5 6 5 6 7 8 10 13 13 13 14 17 18 17 15 15 12 12 12 15 18 19 18 17 19 19 18 19 19 16 16 17 17 18
19 16 17 15 12 9 5 3 3 4 5 6 6 7 7 10 12 13 14 15 17 16 21 15 13 13 15 17 18 20 20 21 19 18 19 20 17 16 18 17 18 18 18 17
10 8 7 5 3 3 3 4 5 6 6 6 6 7 10 12 10 11 12 15 19 20 19 17 14 13 14 15 15 16 18 20 19 19 20 19 17 16 17 21 20 18 19 19
6 6 6 7 8 9 9 9 10 11 11 10 10 13 14 17 17 16 12 13 23 19 16 14 13 12 13 15 16 18 21 21 20 19 19 18 17 16 17 20 22 23 23 25
3 5 6 7 9 11 13 12 12 13 14 15 15 16 16 19 19 18 18 17 21 17 16 14 14 14 16 17 16 17 18 20 20 18 18 16 15 14 14 16 18 20 22 24
4 7 8 9 8 7 10 16 17 15 15 17 18 20 18 17 14 13 15 16 21 22 22 22 23 23 19 15 14 16 17 18 18 18 13 14 14 14 15 16 17 19 20 21
9 10 10 10 11 16 16 18 20 17 16 15 15 16 19 22 22 15 20 25 25 26 24 24 25 19 14 12 11 11 13 14 14 17 17 17 16 15 16 18 19 20 21 21
13 12 14 14 13 12 14 16 15 16 18 18 18 18 19 19 21 29 27 27 26 25 23 21 22 19 11 6 8 11 13 12 12 12 12 12 12 13 14 15 18 23 26 24
12 12 11 12 11 12 13 14 15 16 19 19 19 20 23 24 24 26 28 30 29 27 22 16 7 3 2 6 8 8 8 9 10 11 12 13 15 15 17 20 22 23 24 25
11 11 9 7 10 11 14 14 14 16 18 20 22 24 24 24 27 27 29 28 25 12 2 3 5 9 9 8 8 8 8 9 11 13 14 15 17 18 20 22 24 26 27 27

GFSNGP_925_spd_015.txt.gz
Wind_Speed
14 6 6 8 10 13 17 16 13 12 13 8 7 7 7 8 9 13 15 16 17 16 18 23 23 23 21 16 15 15 12 11 10 9 11 12 13 13 13 14 14 14 14 10
5 8 8 11 12 14 14 17 17 17 16 15 10 4 7 6 9 11 14 16 17 17 21 23 24 24 20 15 16 14 12 11 11 10 12 13 13 14 14 15 14 15 14 11
4 3 4 6 16 16 16 16 14 16 15 9 3 5 8 8 8 11 12 14 16 18 22 22 23 23 17 17 15 13 12 11 11 11 12 12 14 15 15 15 15 15 14 12
1 2 1 4 0 5 10 15 17 15 15 12 6 8 5 7 8 10 11 13 15 17 19 21 20 19 17 15 14 11 10 9 10 11 12 13 15 16 16 15 15 14 12 10
3 6 9 10 6 2 4 7 6 8 9 7 5 6 13 11 8 8 9 11 13 17 19 18 19 20 16 13 12 7 10 9 10 10 13 14 15 16 15 15 15 14 12 9
3 3 4 3 4 1 1 6 7 6 5 1 3 4 6 3 4 7 10 11 14 15 15 16 16 17 13 12 8 9 6 7 9 11 14 16 16 15 16 15 14 12 11 9
6 3 5 2 1 2 4 3 5 6 6 4 5 5 7 7 8 8 9 11 12 12 13 12 11 12 10 4 2 6 4 6 9 12 14 14 14 15 15 13 13 10 8 10
3 3 6 5 5 1 4 4 4 6 5 6 8 10 8 8 8 7 8 6 4 6 7 10 7 5 5 2 3 4 6 9 11 12 13 13 15 15 13 13 13 11 8 9
6 2 4 5 4 2 4 7 8 9 9 10 10 12 13 7 7 6 3 4 5 11 13 11 10 6 3 3 4 5 9 11 11 11 12 14 15 15 15 15 13 10 9 12
1 3 5 6 7 6 6 6 8 8 9 9 10 11 11 6 1 1 6 8 10 13 11 11 5 2 2 2 4 7 9 11 11 11 12 13 12 14 16 14 11 11 12 12
6 11 6 5 3 4 6 6 7 8 8 7 9 10 8 3 2 7 13 13 12 12 10 5 1 2 2 4 6 8 10 10 11 12 12 14 12 13 14 15 14 13 15 14
3 8 5 5 7 8 7 7 7 6 7 10 9 7 7 12 14 14 13 13 12 8 2 2 4 5 6 6 7 9 10 10 11 11 14 14 14 14 14 17 19 20 20 17
5 9 7 6 9 8 8 9 10 10 11 11 15 16 18 17 16 15 12 9 5 1 5 7 9 10 8 8 9 10 11 11 13 14 15 14 14 14 15 16 16 18 22 24
6 7 4 9 7 9 11 15 17 18 18 17 18 18 16 13 12 10 6 3 5 8 9 9 10 12 11 10 11 11 12 14 14 14 15 15 17 16 15 15 16 16 18 21
6 8 9 10 10 11 13 14 13 12 13 15 13 13 10 7 5 2 2 5 7 8 10 12 14 15 12 12 13 14 15 15 13 14 15 17 20 21 23 19 18 18 16 17
6 8 9 10 11 12 12 11 12 9 9 9 8 5 5 5 6 6 8 8 8 10 12 14 17 19 16 16 17 17 18 19 17 17 16 17 17 18 20 19 18 18 19 17
8 8 9 11 10 10 10 9 9 8 8 10 10 10 8 8 8 9 9 9 11 17 20 21 25 20 18 19 20 20 21 19 16 15 18 19 19 19 21 21 21 19 20 21
11 12 14 12 11 10 8 12 9 7 7 8 8 8 9 9 7 10 11 14 17 19 21 19 16 15 16 19 21 23 21 18 17 17 19 22 22 21 20 19 21 21 21 22
18 15 14 12 12 11 9 7 7 6 8 9 9 9 9 9 10 12 14 17 17 15 15 18 19 21 18 19 21 22 21 19 20 19 20 22 23 24 23 20 20 22 22 21
13 13 12 12 12 10 9 8 7 8 9 10 10 10 10 11 13 14 15 14 17 14 16 18 21 22 21 22 23 23 23 23 21 20 20 20 23 24 24 22 22 22 21 22
11 11 11 11 12 13 12 11 10 9 8 10 11 12 13 14 15 16 16 17 18 20 27 29 26 25 26 28 30 28 25 25 23 22 17 19 18 20 24 20 19 18 17 18
10 10 10 10 11 10 9 9 8 8 9 11 11 12 14 14 15 15 16 17 20 26 27 28 28 27 31 33 29 29 28 27 25 19 15 12 13 16 17 16 11 11 14 16
10 11 10 9 8 7 7 9 9 9 10 10 11 13 14 15 17 19 17 20 25 26 29 27 26 28 30 30 29 28 26 26 23 6 6 8 11 13 13 13 13 13 13 15
11 9 8 7 7 6 6 8 7 6 8 10 10 12 14 17 17 16 20 23 22 25 23 24 28 26 23 21 20 19 17 15 14 13 10 9 9 11 12 12 12 13 13 14
9 8 7 4 4 5 5 7 7 8 10 11 12 12 14 15 16 19 18 19 20 20 19 20 21 23 21 19 18 17 16 14 14 13 13 12 12 12 14 14 14 14 16 15
6 6 7 7 6 5 6 8 8 9 11 12 12 13 14 14 15 15 15 17 17 18 18 18 19 20 19 18 17 17 16 15 15 14 14 14 14 14 15 16 17 17 17 18
8 5 4 4 6 6 7 8 9 10 11 11 12 12 13 14 14 15 16 16 17 17 18 18 18 18 18 18 17 16 16 15 15 15 15 15 16 16 17 18 19 19 20 22

GFSNGP_925_spd_018.txt.gz
Wind_Speed
13 15 3 11 9 10 13 10 10 10 14 12 8 5 1 3 8 5 7 12 10 11 12 20 19 21 22 20 18 15 16 18 12 8 6 7 8 8 10 11 12 15 14 16
3 10 14 12 15 13 15 13 13 15 14 12 7 9 8 5 4 2 7 6 6 5 10 16 19 21 21 19 19 15 19 12 7 3 3 4 10 12 13 15 15 13 12 16
2 5 7 6 9 16 15 15 11 11 10 9 6 2 3 4 5 2 5 6 4 4 8 13 18 21 20 20 15 17 14 11 8 4 5 10 9 13 15 15 14 12 13 13
1 1 1 9 1 6 6 9 11 12 10 8 9 10 6 5 6 5 2 4 4 4 9 14 15 17 21 19 16 16 12 7 2 6 5 8 11 14 15 15 13 13 14 13
2 4 7 11 4 1 1 4 12 10 11 10 11 6 7 8 7 6 7 3 5 8 10 11 13 15 17 12 12 13 8 4 5 7 9 11 12 13 14 14 15 14 14 10
3 2 4 0 5 3 1 3 9 9 8 7 5 3 5 11 10 4 6 8 7 7 7 9 10 12 14 13 12 9 8 8 12 11 11 13 13 12 12 14 16 15 11 4
3 2 5 2 4 1 2 3 6 6 7 6 4 5 3 3 5 13 14 10 9 13 22 19 18 16 17 16 14 7 7 5 10 10 11 12 13 13 14 16 15 14 12 10
2 2 6 4 5 2 4 3 6 5 6 6 4 5 8 9 5 6 11 10 22 27 26 25 21 23 21 18 11 5 8 9 8 9 10 12 13 16 15 16 17 17 11 9
7 4 4 5 3 3 1 2 4 5 6 6 6 7 9 8 6 8 14 20 23 23 24 22 22 21 17 9 2 4 8 9 10 11 10 11 12 16 16 17 20 13 9 9
2 4 6 7 3 3 2 3 6 8 7 6 8 10 9 7 9 13 18 18 18 19 17 16 15 13 10 3 6 7 10 11 11 11 11 13 16 12 11 14 15 13 10 12
6 8 7 3 10 11 8 7 8 10 11 11 8 8 10 14 14 18 19 19 17 14 12 10 7 4 4 7 8 8 10 10 11 12 14 14 15 14 12 12 15 19 17 16
3 7 3 8 11 8 9 11 9 9 12 14 15 13 18 13 17 16 15 14 12 9 7 5 6 8 6 7 8 11 12 12 12 12 13 15 17 16 14 17 18 19 20 21
3 6 4 11 13 14 13 11 12 13 16 13 17 17 16 15 13 13 10 8 5 4 3 3 5 6 9 10 11 13 14 13 14 14 15 15 14 15 17 18 18 18 18 20
6 5 7 8 8 13 14 15 17 17 16 16 15 14 12 11 8 6 4 2 2 5 6 7 9 11 12 12 13 15 16 16 18 20 17 12 11 14 19 20 22 21 19 20
8 11 13 12 14 13 13 13 12 11 10 12 11 10 8 7 6 5 5 6 5 8 9 10 11 14 15 16 16 18 19 20 20 18 18 18 18 20 22 21 21 22 22 20
9 10 10 12 11 11 11 10 11 9 8 14 14 14 14 12 9 8 9 13 9 10 14 17 21 22 17 18 20 22 23 24 25 26 24 23 22 20 18 19 20 20 19 21
10 9 11 10 10 9 10 12 13 11 12 13 11 10 10 10 9 12 11 13 13 15 18 17 19 17 18 18 20 22 24 25 25 26 23 22 21 20 20 21 20 20 21 22
10 12 12 11 8 11 10 13 12 13 10 9 9 10 10 10 9 10 15 18 18 17 17 14 15 19 21 20 22 24 24 25 25 24 23 21 22 20 20 20 21 21 22 22
17 14 16 16 15 14 12 11 10 12 11 10 10 10 10 11 12 13 15 16 15 12 18 22 28 26 23 25 28 28 26 27 28 29 28 26 24 21 19 19 21 22 22 21
16 18 17 17 16 15 12 10 9 14 11 11 10 11 10 9 10 12 13 14 13 14 21 26 27 25 27 26 28 29 29 28 28 31 30 29 23 17 13 14 19 24 21 20
14 14 14 14 14 14 13 10 10 10 8 11 11 11 12 12 12 14 14 13 17 25 24 28 25 23 30 35 36 29 29 28 28 26 26 27 21 10 7 9 14 18 14 12
12 12 12 12 11 10 9 9 10 9 10 11 11 14 14 14 15 15 15 15 20 23 27 22 24 32 30 28 25 26 27 27 26 25 20 17 14 7 9 11 14 16 16 15
13 12 11 10 9 10 9 9 9 11 10 9 11 13 13 13 14 15 12 17 18 24 21 19 26 30 26 24 25 25 25 24 24 23 23 23 20 18 16 16 16 15 17 18
14 11 10 9 10 7 6 7 5 6 9 9 11 12 13 13 12 13 16 18 19 21 20 20 24 26 25 23 23 23 23 22 24 23 23 22 21 20 20 20 19 19 19 19
11 11 9 8 6 7 6 6 4 7 8 8 9 9 10 11 11 15 17 16 18 19 20 20 22 23 22 22 22 21 22 21 23 23 23 21 22 21 21 20 21 21 21 22
10 10 10 11 8 7 6 7 7 7 8 9 9 10 10 9 11 14 15 17 17 19 19 20 21 21 19 21 21 21 21 21 23 22 22 21 22 21 22 22 22 23 23 23
10 9 9 9 8 7 7 6 7 7 8 6 9 12 11 10 12 12 15 17 18 17 18 19 19 19 19 20 20 20 20 20 21 21 21 22 21 22 23 23 24 23 24 24

GFSNGP_925_spd_024.txt.gz
Wind_Speed
5 3 2 1 2 2 5 5 6 8 8 10 6 8 9 7 5 5 6 7 7 8 8 17 19 21 23 33 37 39 38 33 30 26 24 24 18 15 10 7 4 9 14 17
3 2 2 2 5 5 5 3 5 5 6 4 5 7 8 3 8 6 6 3 9 9 11 15 20 25 27 33 36 37 37 34 28 26 25 21 17 9 6 5 8 14 18 21
4 4 4 5 7 6 5 3 4 5 4 5 6 7 5 6 7 7 7 6 4 8 13 17 23 31 33 36 35 35 32 27 24 23 26 19 14 9 7 6 12 16 18 17
3 3 2 7 5 4 8 5 6 8 5 9 9 5 8 6 7 7 6 6 5 2 12 21 27 31 29 28 30 29 26 22 27 27 21 16 14 10 3 11 15 16 15 15
4 3 4 5 3 5 5 1 3 6 6 6 6 6 6 5 6 6 6 8 11 14 11 3 10 15 19 21 21 22 22 20 19 19 19 13 8 5 5 10 12 13 15 17
2 4 6 7 4 2 5 2 5 6 4 6 4 3 3 6 6 8 14 15 16 19 22 23 20 25 30 28 29 26 24 23 20 16 12 9 3 7 12 8 12 15 17 16
2 2 7 8 6 2 5 6 5 6 6 4 4 4 3 8 10 14 16 17 20 24 26 23 22 28 31 28 26 24 20 12 10 7 8 3 8 10 9 12 15 16 17 18
3 2 6 5 3 7 6 4 8 5 5 8 7 9 9 10 10 11 15 17 20 24 23 23 23 27 24 24 17 9 4 6 10 4 3 7 10 12 12 12 14 11 12 15
8 6 6 4 5 5 6 6 5 8 6 8 9 8 9 10 10 12 14 15 18 22 22 19 16 14 17 13 5 1 1 2 2 7 11 10 12 13 12 14 14 15 16 17
4 2 2 5 5 5 5 9 7 6 7 9 12 10 12 10 9 11 12 14 15 16 17 18 16 15 12 8 4 1 1 5 9 11 12 12 12 13 15 17 20 21 22 21
3 1 9 8 6 9 12 12 14 13 11 12 15 11 11 10 9 12 14 16 17 17 15 12 10 8 6 4 6 8 9 11 13 14 15 17 17 17 19 19 20 23 23 22
5 9 5 3 5 7 13 10 10 15 13 12 14 13 14 9 13 16 17 15 13 11 11 8 7 6 6 8 11 12 15 17 18 19 20 20 21 24 23 22 21 19 20 22
6 6 13 12 10 8 13 12 12 14 14 13 14 17 16 13 15 16 13 11 9 8 8 8 9 11 13 14 13 14 18 22 25 27 27 26 26 27 26 30 24 25 26 28
16 16 9 0 7 10 15 17 20 20 18 18 18 19 17 15 12 13 11 11 11 13 15 14 15 17 17 18 18 19 19 20 21 23 24 26 27 29 29 25 25 28 34 33
7 9 12 15 14 12 17 18 14 12 11 13 14 14 16 16 15 14 14 12 13 16 17 17 17 20 20 21 23 22 23 24 25 26 23 24 24 25 26 27 29 28 27 30
14 15 13 14 13 11 11 11 15 11 10 12 14 16 16 17 15 13 13 15 15 15 13 16 19 20 20 21 22 22 21 22 24 24 25 24 24 24 25 24 26 25 23 26
17 9 12 11 11 9 12 8 10 11 13 13 13 12 16 16 16 15 15 13 14 14 14 18 17 17 19 21 23 24 24 24 23 23 23 24 25 25 24 26 27 28 30 29
11 11 11 12 13 13 11 14 15 15 14 15 15 16 17 18 13 12 13 14 9 12 17 15 15 19 21 21 21 20 22 23 20 20 21 22 24 24 26 28 29 28 32 29
19 16 18 17 18 18 15 15 15 17 16 16 18 17 16 14 12 12 12 13 13 12 13 12 17 20 21 20 19 19 19 21 20 20 20 23 22 23 23 27 28 28 30 29
17 21 21 19 18 20 18 17 18 16 16 16 16 14 11 9 9 11 11 15 13 12 8 12 16 20 21 18 17 19 19 18 23 20 22 22 21 22 22 23 24 25 27 28
13 17 18 19 17 18 19 22 22 19 16 15 17 16 14 12 11 10 10 9 9 11 9 10 15 17 18 19 16 18 19 17 22 21 23 20 20 23 21 22 22 23 24 24
14 14 16 18 17 17 19 19 21 20 17 16 15 13 12 12 13 14 10 8 6 9 9 10 12 14 14 17 17 16 17 16 20 21 22 19 20 22 21 21 23 22 21 21
12 14 15 15 16 17 18 17 17 17 16 14 12 11 12 11 7 7 5 5 6 8 8 10 11 12 13 15 15 15 15 15 20 18 19 20 23 21 20 24 22 22 22 23
14 13 13 17 21 18 13 14 13 14 15 13 10 8 8 9 8 6 5 4 6 8 9 10 12 13 14 15 15 16 15 16 19 16 17 21 23 20 23 22 22 22 23 22
15 15 18 16 11 9 12 15 16 15 13 11 10 7 5 4 4 4 4 6 7 8 10 11 11 12 15 14 14 15 15 17 20 14 17 22 24 23 22 21 22 23 23 25
14 14 17 17 15 14 14 12 12 9 7 7 7 6 7 6 4 3 5 8 8 8 9 9 11 12 15 12 13 14 15 17 20 15 17 22 25 24 22 21 23 24 24 24
19 19 18 18 16 14 12 10 8 5 4 5 5 5 4 2 2 5 8 10 10 8 8 8 11 12 14 14 12 11 14 17 19 18 20 23 25 24 21 21 22 23 24 24

GFSNGP_925_spd_030.txt.gz
Wind_Speed
5 4 5 5 5 9 7 5 6 7 7 9 8 6 7 6 6 5 4 5 5 4 4 9 12 14 16 20 21 22 24 29 33 30 29 27 25 25 24 23 20 17 14 11
4 1 1 4 6 6 5 4 5 6 7 8 3 2 4 2 5 6 5 2 2 2 4 7 14 18 21 24 25 24 26 27 25 24 25 22 21 21 21 20 17 12 7 4
5 2 4 6 7 8 5 5 7 7 10 5 1 2 3 4 7 8 8 8 8 8 8 3 6 13 18 17 18 21 22 17 16 16 16 16 17 19 19 17 11 6 0 12
3 3 2 7 1 4 9 7 5 5 3 5 7 4 6 6 5 8 7 8 8 9 12 14 10 7 3 3 8 11 10 11 12 14 16 19 21 17 12 7 8 7 11 11
5 4 5 4 5 8 8 9 7 5 6 7 6 5 7 6 7 7 6 7 8 13 17 17 17 14 16 16 16 17 18 17 18 21 25 21 15 8 8 11 11 10 12 14
3 5 8 8 5 5 4 4 8 9 9 9 6 4 4 5 4 6 10 13 15 18 19 20 17 17 22 23 25 25 25 27 24 19 15 9 8 2 6 14 15 15 16 17
2 3 7 7 4 5 5 8 9 12 9 8 5 3 7 9 7 10 13 16 20 23 22 19 18 22 26 27 27 23 20 16 12 8 2 5 11 15 15 11 14 17 20 21
3 3 7 8 4 9 7 2 7 7 9 6 7 8 9 8 8 9 13 17 20 22 23 21 23 28 25 21 14 11 8 5 2 3 3 3 5 9 12 15 17 20 22 24
9 7 4 6 4 6 5 6 7 8 6 10 11 6 7 8 8 10 15 18 21 24 26 23 21 21 21 13 12 12 12 11 8 6 6 7 10 12 15 16 17 21 23 27
4 5 6 5 3 2 2 4 6 5 8 9 10 10 11 10 8 11 15 19 23 24 22 23 21 20 17 13 11 11 12 12 11 11 12 12 13 14 16 19 22 25 26 25
3 3 1 5 5 5 3 6 9 8 5 11 15 12 12 10 8 12 16 19 22 21 20 20 19 19 16 14 11 13 13 13 14 14 15 17 17 18 19 20 20 23 24 26
7 9 7 5 7 7 7 6 7 15 10 8 11 13 13 10 14 16 18 19 20 21 22 20 21 20 18 16 14 14 14 14 15 17 18 20 21 24 22 21 21 21 23 24
6 6 4 8 7 3 8 8 9 11 14 15 14 19 18 16 16 20 19 20 20 20 20 18 18 18 16 15 14 14 14 15 17 18 18 17 19 20 24 24 18 19 20 23
10 13 6 3 5 8 14 13 19 19 18 19 21 20 20 19 19 19 18 18 18 19 18 16 15 16 14 13 13 14 14 14 16 16 17 18 19 19 19 20 26 26 24 25
5 4 7 15 14 13 15 16 15 13 12 15 20 21 21 18 17 17 18 18 20 18 16 13 13 12 12 13 13 14 14 14 15 15 15 15 17 18 17 18 19 21 25 28
9 12 13 15 15 14 14 12 17 13 12 15 17 18 20 21 19 18 17 15 15 14 12 12 12 10 10 11 11 13 13 13 14 14 15 17 18 16 16 18 18 19 20 24
13 9 11 12 13 12 11 11 13 12 14 16 17 21 24 22 20 19 18 18 17 15 11 10 9 8 9 10 9 11 11 12 14 14 16 17 17 15 17 16 16 18 19 23
6 7 5 14 16 14 11 10 14 18 16 19 22 22 20 18 18 18 19 18 15 13 9 9 8 7 8 10 9 10 10 13 13 13 15 16 15 16 18 15 16 20 23 23
7 11 11 11 13 12 13 15 16 20 23 25 22 16 18 19 20 21 18 15 12 10 6 5 6 8 9 10 10 11 10 12 13 12 14 14 14 17 19 16 19 24 24 23
13 17 20 19 20 18 17 19 22 21 20 24 24 21 18 20 22 19 14 13 8 6 4 4 6 7 8 8 9 10 10 10 12 11 12 13 15 18 18 16 21 23 23 23
13 15 16 18 19 21 20 20 22 18 18 21 20 18 18 20 17 15 12 9 5 4 3 4 5 6 7 8 8 9 9 9 11 11 11 14 17 19 19 19 22 23 23 25
13 13 15 18 18 18 19 19 20 21 20 19 20 21 22 16 14 11 7 7 6 3 2 4 5 5 7 8 8 8 8 9 11 12 11 13 17 20 21 21 22 22 23 24
15 16 17 17 17 17 19 19 19 20 20 19 19 18 16 14 10 10 7 5 3 2 3 5 5 6 7 8 8 8 8 9 11 12 11 14 17 20 21 21 22 21 22 24
17 17 18 20 22 19 16 14 17 17 17 15 13 12 12 11 8 5 6 4 1 2 4 6 6 6 7 8 9 9 9 9 11 12 12 14 17 19 20 21 22 22 22 23
19 19 19 17 15 13 15 16 17 15 14 12 9 7 5 3 0 6 3 1 2 5 7 7 7 7 8 9 10 10 10 10 11 13 14 16 19 22 22 22 22 22 22 23
19 18 19 19 16 15 14 12 11 10 9 8 5 5 5 4 5 4 1 2 4 6 7 8 8 8 8 9 10 12 11 11 13 15 16 17 20 23 23 23 23 22 22 23
21 19 19 19 18 15 12 10 8 6 4 3 2 5 6 5 3 1 1 3 5 6 7 8 8 8 10 11 13 12 11 12 15 17 17 19 22 24 24 23 23 22 22 22

GFSNGP_925_spd_033.txt.gz
Wind_Speed
5 5 5 6 6 11 9 6 7 8 9 9 7 6 6 6 6 3 3 2 1 2 3 5 6 6 7 9 11 11 12 12 13 14 14 14 16 20 23 25 26 24 24 21
4 3 5 4 7 10 9 3 8 7 8 10 4 3 2 3 3 6 7 8 8 6 4 3 1 1 1 2 4 6 8 8 8 9 11 13 13 13 15 17 16 17 9 5
4 1 3 5 7 11 5 5 6 8 12 4 5 5 4 6 8 9 9 10 11 10 11 11 9 6 5 3 1 3 4 4 5 6 8 8 9 11 12 14 14 11 6 2
3 1 6 4 1 2 11 6 9 7 6 5 3 6 5 4 11 9 8 9 9 10 13 13 13 15 13 11 11 10 9 8 7 8 10 11 14 19 19 15 10 7 9 14
5 5 4 3 5 7 7 14 10 13 5 5 11 8 4 4 6 9 8 9 12 13 15 16 16 15 18 18 17 16 15 14 13 14 18 20 20 15 11 5 5 8 14 17
3 5 10 5 4 6 4 12 8 11 10 16 11 7 6 8 7 10 11 12 15 15 16 18 16 17 22 20 19 19 17 17 17 17 15 13 10 5 1 5 11 16 16 16
3 4 6 6 4 6 6 13 7 13 13 16 9 1 11 12 10 12 13 15 16 17 20 19 18 22 26 23 22 18 17 15 13 10 8 5 3 6 7 8 8 12 16 18
3 2 8 8 6 10 6 2 5 10 13 12 9 13 14 13 13 13 16 16 17 22 22 20 20 23 22 18 13 12 12 14 13 10 8 6 5 6 7 8 10 12 15 17
9 7 2 10 4 7 4 4 5 11 11 14 16 10 13 13 13 13 17 18 19 24 24 20 18 18 20 15 16 15 14 13 11 9 8 7 7 7 8 8 10 12 14 17
3 5 7 7 4 4 6 5 6 9 16 17 15 18 16 14 13 15 18 20 22 24 23 20 17 18 17 15 14 14 13 11 10 9 8 8 7 7 9 10 12 14 16 19
3 5 2 9 10 6 5 5 8 9 9 15 20 17 17 15 15 19 20 20 20 22 21 19 18 19 18 15 13 13 10 9 9 8 9 9 9 10 10 9 11 14 15 18
6 10 6 5 12 9 10 10 12 14 13 13 17 19 19 15 20 22 22 22 22 21 21 18 18 18 16 14 12 10 9 9 10 9 9 9 10 10 10 10 10 12 13 16
3 2 2 4 6 6 9 12 10 13 17 19 18 22 24 19 22 24 23 22 22 20 20 18 17 15 13 11 10 11 10 8 8 9 8 9 10 11 13 12 11 12 14 15
4 6 2 5 4 6 11 13 18 18 18 20 24 25 25 24 24 22 21 21 22 21 19 16 15 13 10 10 10 10 9 11 8 8 9 10 11 12 12 14 16 16 15 16
3 5 3 12 13 12 12 14 16 16 16 17 23 25 27 24 23 23 21 21 20 18 16 13 13 11 9 9 10 10 9 8 7 7 8 9 10 10 11 13 14 16 18 18
8 8 6 7 13 14 14 13 17 15 15 14 18 22 24 27 26 24 22 20 18 15 13 14 12 9 8 8 8 8 7 9 8 7 7 9 9 10 12 13 14 16 18 20
7 3 6 6 8 10 9 10 13 15 13 16 22 25 27 26 24 21 18 18 21 18 14 12 10 8 8 7 7 6 5 6 7 6 7 8 9 9 11 12 12 14 16 17
1 9 5 8 10 11 12 11 13 18 15 23 25 24 22 19 18 20 20 19 19 15 11 10 8 7 7 7 6 5 5 5 4 6 6 8 8 9 10 11 11 14 16 17
9 9 12 11 11 11 11 11 16 22 23 23 24 18 16 17 18 20 19 18 14 12 8 8 7 7 7 6 5 5 5 5 4 5 6 7 7 9 10 10 11 13 15 16
16 17 20 18 18 19 16 18 21 23 23 25 23 20 17 16 21 19 16 12 8 9 9 6 5 5 4 3 4 4 4 5 5 5 6 7 8 10 10 11 12 13 14 15
12 13 14 17 17 20 21 22 22 18 17 20 19 17 18 19 20 18 14 11 8 8 6 4 3 3 3 3 3 4 4 5 6 6 7 7 9 10 11 12 12 13 14 15
11 11 15 18 18 19 19 20 21 19 18 18 19 22 22 16 14 11 8 9 9 7 4 2 1 1 2 3 3 4 4 5 6 8 6 6 8 10 12 13 14 14 15 16
16 17 18 18 18 18 21 20 19 18 16 16 17 16 13 11 9 8 7 6 7 5 2 1 1 2 3 4 5 6 6 7 7 8 8 9 10 11 13 15 17 16 16 17
19 21 21 21 22 22 18 17 18 18 19 16 15 14 14 11 8 7 8 8 4 2 0 2 2 3 4 5 7 8 9 9 9 10 10 11 12 14 16 18 19 19 19 20
21 21 20 20 19 16 18 16 16 13 13 12 10 9 7 4 3 8 7 5 2 0 2 4 5 5 6 7 8 9 11 11 11 11 12 13 14 16 18 20 20 20 21 20
22 20 21 22 18 14 11 10 10 9 8 8 6 4 4 5 6 6 4 2 0 3 5 6 6 7 8 9 10 11 12 11 11 13 15 15 16 18 20 22 22 21 21 21
25 22 21 22 22 19 17 13 10 9 8 6 4 0 2 3 3 2 1 2 4 5 7 8 8 8 9 10 11 12 12 12 13 15 17 17 17 20 22 22 22 22 22 21

GFSNGP_925_spd_036.txt.gz
Wind_Speed
18 17 16 18 17 15 18 18 15 13 15 12 10 11 7 3 3 3 3 5 4 5 7 8 9 9 9 9 8 8 6 6 6 6 8 9 9 9 11 13 16 20 20 17
17 16 15 17 18 18 19 17 14 18 15 12 13 6 8 4 2 4 6 6 7 7 8 9 10 11 12 10 7 6 6 6 6 6 6 6 8 10 11 14 15 21 18 17
15 7 6 9 16 17 17 15 16 16 16 14 9 11 9 5 4 7 10 10 11 10 11 13 13 12 12 13 12 10 10 9 7 7 7 8 9 10 12 15 17 18 14 11
6 5 8 11 3 17 18 18 18 16 15 12 11 2 4 3 8 10 11 12 11 12 15 16 16 17 17 16 15 15 14 12 11 10 10 11 12 13 13 13 14 13 10 12
5 10 11 4 6 10 12 17 17 19 17 9 6 8 6 5 8 10 10 10 13 14 15 17 18 18 20 19 18 17 16 15 14 14 15 14 14 13 11 9 7 6 8 10
4 8 9 10 13 12 6 16 13 11 15 12 13 9 7 13 11 10 12 13 15 15 16 18 17 18 20 20 19 20 18 18 17 15 14 12 9 7 4 1 1 5 10 12
10 6 6 4 8 12 10 15 3 9 10 15 15 5 19 17 13 13 13 15 15 16 18 18 17 19 22 21 21 18 17 15 14 12 10 8 5 3 1 3 2 5 7 9
7 6 10 12 10 11 13 3 6 8 11 16 10 15 18 17 16 15 16 16 16 18 19 17 17 18 20 20 16 15 15 14 13 11 9 6 5 4 4 4 5 6 8 10
9 7 5 19 15 17 7 7 6 8 10 16 16 17 18 18 17 15 18 18 18 20 20 17 16 16 18 17 16 15 13 12 11 9 8 6 5 4 4 5 6 8 9 11
3 11 12 11 15 7 10 8 6 8 14 19 20 20 19 17 15 15 20 20 21 21 20 18 16 16 17 15 14 14 13 11 9 8 6 6 4 5 5 6 7 8 10 11
10 13 5 11 15 15 11 7 7 10 17 20 20 20 19 18 17 19 21 21 21 20 20 19 17 17 14 13 12 12 11 9 7 6 6 5 5 5 5 6 6 8 9 11
7 11 10 14 8 15 15 15 13 16 17 17 19 21 18 17 21 23 23 22 21 21 21 20 18 16 13 11 11 11 10 8 7 5 5 4 4 2 5 6 4 5 6 8
6 0 5 6 7 9 13 13 14 16 19 21 19 19 22 18 24 25 25 24 23 23 22 20 18 15 12 11 10 10 10 8 6 6 4 4 3 4 5 3 7 5 6 8
2 1 4 4 4 6 7 10 8 11 14 16 20 24 24 21 26 25 24 23 24 24 21 19 17 15 12 11 10 10 10 10 6 5 4 3 3 3 4 5 7 8 8 10
4 1 3 5 2 5 7 8 15 14 14 15 22 22 25 22 22 23 23 24 23 21 19 18 16 14 11 10 10 9 7 6 5 5 4 3 3 3 4 6 7 9 10 10
3 4 6 8 6 6 8 9 8 11 14 15 15 21 23 23 24 24 22 19 19 16 14 13 15 11 9 8 8 7 7 6 5 4 3 3 3 4 5 6 8 8 10 12
3 2 4 8 9 9 8 8 10 11 11 14 18 22 25 25 24 23 21 21 21 16 13 12 12 11 9 6 5 4 4 4 5 3 3 4 4 4 5 7 8 9 10 11
5 2 2 9 11 9 10 12 13 15 13 20 21 25 24 21 19 19 17 21 20 15 12 10 9 10 9 6 5 4 4 4 3 3 2 3 4 5 6 7 8 10 12 13
6 7 9 7 7 13 11 12 16 22 24 23 22 18 19 22 22 21 19 16 14 13 10 9 10 9 8 6 4 4 3 3 2 1 2 3 4 5 6 8 9 10 12 14
11 14 17 19 19 18 14 21 22 22 22 26 26 23 21 18 18 19 16 13 8 10 10 9 8 7 6 4 4 2 3 2 2 2 3 4 5 6 7 8 9 11 12 14
12 13 15 17 18 22 21 20 23 21 19 21 21 19 20 18 17 16 14 12 10 9 9 8 6 4 3 2 3 2 2 2 3 3 4 5 6 7 8 9 10 11 13 14
11 13 16 21 21 22 24 24 25 24 23 23 22 22 20 16 14 14 12 11 9 7 6 5 4 2 1 2 2 3 3 4 4 5 5 6 6 8 9 10 11 12 13 14
20 22 24 23 22 23 25 25 23 23 22 21 19 16 14 11 8 6 7 6 7 6 5 3 2 2 3 3 4 5 6 6 6 6 6 7 7 8 10 11 12 13 14 15
24 24 23 22 23 24 20 21 22 21 21 18 16 13 10 9 9 9 10 8 6 4 3 1 1 4 4 4 5 6 7 8 8 8 8 9 9 10 11 12 13 14 14 15
24 23 22 22 21 18 19 17 17 16 16 15 12 10 8 6 4 6 6 5 3 2 1 3 4 5 4 6 7 7 8 9 9 9 10 10 11 12 12 13 14 15 16 15
24 22 23 25 21 18 16 15 15 13 11 10 9 7 7 7 7 6 4 3 2 2 3 4 4 5 6 7 8 9 10 10 10 10 11 12 13 13 13 14 15 15 15 16
25 21 20 21 21 19 17 16 14 13 12 10 7 6 4 3 3 3 3 2 3 3 4 6 6 7 7 9 10 11 11 11 11 12 13 14 14 13 14 15 15 15 15 15

GFSNGP_925_spd_042.txt.gz
Wind_Speed
20 19 19 18 19 19 20 22 15 15 16 15 16 12 5 20 6 4 4 3 6 4 9 10 10 11 13 12 10 16 20 24 23 19 16 13 12 13 14 15 16 16 17 18
21 21 20 23 19 22 19 20 20 18 19 16 13 6 1 17 7 8 6 5 5 7 12 9 12 12 15 15 12 12 20 22 18 17 13 12 12 12 12 13 14 15 17 21
16 17 14 21 19 17 17 19 13 16 12 10 14 8 17 18 9 9 7 5 4 5 10 15 14 18 15 15 14 12 18 17 17 17 18 17 16 15 14 14 14 16 16 17
7 1 21 11 14 16 16 15 16 18 15 13 13 12 7 4 3 7 8 8 6 6 11 17 18 18 18 17 18 18 17 16 16 17 17 15 15 15 14 14 14 15 13 12
4 14 17 17 17 12 13 17 20 22 18 16 14 14 4 3 1 6 8 8 8 13 15 18 20 21 21 20 19 19 18 17 17 18 18 17 17 16 16 15 14 13 10 9
3 11 16 6 12 13 15 16 14 13 13 13 12 5 5 10 6 9 11 13 15 17 18 19 21 22 21 20 19 19 19 18 18 19 18 19 18 17 16 15 14 12 8 6
8 7 5 7 13 15 19 8 7 9 11 9 3 2 7 11 10 11 13 17 20 20 18 20 22 22 20 20 19 21 21 21 20 19 19 18 17 14 13 10 9 9 7 6
5 4 11 6 8 15 8 17 7 9 8 3 2 9 11 13 14 14 14 18 21 19 19 20 21 21 21 20 22 22 21 20 19 18 16 15 14 13 13 12 13 10 8 7
6 3 16 19 12 10 7 8 8 8 5 5 7 9 13 13 14 15 15 19 20 18 19 19 20 20 21 21 21 21 21 19 18 17 15 15 13 11 12 12 10 10 6 6
2 7 16 19 12 8 11 11 15 10 6 4 6 13 13 13 13 14 16 19 21 21 18 17 19 20 22 21 21 21 20 20 19 17 15 13 12 9 12 11 8 7 6 4
12 13 14 21 10 5 11 9 11 6 6 7 4 14 14 14 14 14 16 20 21 19 17 16 17 19 19 18 19 19 19 18 16 17 15 15 16 12 9 8 8 7 7 3
5 8 2 4 11 7 4 10 17 4 7 7 7 11 13 12 12 14 15 19 18 18 20 18 18 16 16 16 17 18 17 17 15 14 13 15 13 12 8 6 5 3 4 4
4 6 11 5 6 8 7 7 12 8 4 8 4 5 10 9 13 16 18 19 17 18 19 20 18 17 14 14 17 17 18 16 16 14 13 11 10 12 13 7 4 1 1 2
11 10 5 4 5 9 6 11 9 7 4 6 5 10 11 9 14 13 16 18 21 21 20 21 21 18 15 18 21 21 17 14 13 12 11 10 8 6 4 5 6 7 4 3
12 9 7 7 9 9 6 8 8 7 5 5 5 9 12 12 11 14 16 20 22 22 21 22 21 17 16 18 17 17 16 14 12 9 8 7 6 4 3 2 1 2 1 3
11 9 9 9 8 8 7 7 7 5 7 7 9 10 16 20 20 23 26 27 23 18 22 24 22 21 19 16 15 15 14 13 10 7 7 5 3 2 1 1 2 3 4 4
10 12 11 10 7 8 9 10 8 7 10 14 15 28 32 32 31 30 31 35 35 29 25 23 19 17 17 15 15 12 9 7 8 6 5 4 2 1 1 2 3 5 5 7
13 14 15 14 11 13 15 16 15 15 15 22 26 29 27 24 19 25 26 30 31 27 22 16 14 13 12 12 12 10 8 6 5 5 3 2 0 1 1 3 4 5 6 7
14 14 15 16 15 14 13 13 18 20 21 22 27 24 26 26 26 25 25 24 22 20 16 16 14 13 11 11 8 8 7 5 3 2 1 2 3 2 2 4 4 6 8 10
16 20 23 22 24 22 15 22 26 23 23 26 25 26 24 23 23 23 23 21 17 17 15 13 12 10 9 9 7 6 5 4 2 2 2 4 4 3 6 7 6 7 8 10
16 18 19 21 23 28 27 28 27 26 27 28 27 24 25 24 23 20 18 15 13 14 14 12 10 8 6 5 5 4 3 3 3 4 4 6 6 6 7 7 7 8 9 9
18 16 20 24 24 25 28 28 28 28 28 28 24 24 23 21 21 20 15 14 11 10 11 10 7 6 6 5 5 6 6 5 5 6 7 7 8 8 8 9 9 9 9 11
22 23 24 25 24 25 29 29 28 28 26 23 22 21 20 17 11 11 10 10 10 9 10 8 8 8 7 7 6 6 6 7 8 8 8 9 9 8 10 11 10 11 12 12
22 23 23 22 24 25 21 22 23 24 23 23 25 25 16 15 17 17 15 12 9 8 9 8 9 9 7 7 7 7 8 9 10 10 9 11 12 11 10 11 12 11 12 12
23 24 23 21 20 18 19 18 17 17 20 20 20 20 19 20 17 13 11 10 9 9 8 10 9 11 9 8 8 8 10 11 11 13 13 10 10 12 14 14 14 13 13 15
21 20 21 23 22 20 19 19 18 19 15 16 16 16 15 14 13 10 8 8 8 7 7 6 9 6 9 10 12 13 13 13 13 12 11 11 13 15 16 16 15 14 13 14
22 19 18 18 19 19 19 18 16 16 17 16 15 15 15 14 13 12 11 11 10 10 11 11 11 12 11 13 12 12 12 13 13 13 13 12 14 16 17 16 15 15 17 19

GFSNGP_925_spd_045.txt.gz
Wind_Speed
15 13 13 11 16 15 14 15 11 6 7 8 10 11 6 6 1 3 5 7 8 8 7 8 12 17 24 23 32 30 32 26 27 26 24 26 22 21 20 18 19 18 18 19
5 9 16 18 15 18 15 5 11 12 13 14 15 7 9 12 9 8 9 8 8 8 8 8 15 20 23 25 23 25 27 27 28 27 25 23 21 20 18 17 17 17 18 19
13 5 6 15 19 13 6 11 11 10 11 9 6 10 10 11 14 12 9 8 9 10 12 15 20 27 25 25 25 25 25 26 27 25 23 20 19 18 17 17 16 16 16 19
4 5 11 10 11 10 8 11 10 3 4 6 6 8 11 9 11 7 8 8 8 9 10 19 26 30 32 26 27 29 26 24 26 28 26 23 21 20 18 17 18 18 19 18
5 12 4 8 5 7 8 11 6 5 7 7 9 4 0 7 4 8 8 7 7 14 20 24 27 28 29 29 30 29 26 27 30 29 27 24 23 22 20 20 19 18 17 17
2 6 16 3 11 8 4 11 4 5 6 9 3 2 5 6 9 8 9 13 15 22 25 27 26 28 28 24 25 22 25 26 27 27 29 27 25 24 22 22 22 19 17 17
3 2 6 5 6 6 9 3 8 6 4 4 4 6 6 8 6 8 11 17 24 23 21 26 28 30 26 25 22 25 28 28 27 27 27 26 25 24 23 23 23 17 15 13
3 2 5 12 7 3 8 11 11 11 5 2 7 8 9 8 11 11 12 15 22 19 21 27 29 30 24 24 26 28 26 27 28 30 27 24 23 22 20 20 19 18 19 21
8 5 6 4 6 2 5 11 12 4 10 8 9 7 10 10 11 11 12 13 20 21 21 24 27 30 24 27 30 31 32 30 28 25 23 23 22 21 18 23 21 19 21 23
5 7 9 9 3 10 13 12 13 10 1 3 7 8 7 9 9 9 7 9 17 20 16 18 25 26 29 30 32 33 30 27 26 23 25 23 22 27 25 22 20 18 19 21
3 3 4 5 4 4 15 21 18 8 6 4 7 8 7 6 7 7 10 14 21 18 16 15 23 26 28 29 26 24 24 24 25 26 26 26 23 20 20 16 14 17 13 13
5 8 7 7 15 14 8 4 17 7 9 6 2 8 7 7 6 8 10 19 20 21 23 21 23 22 20 21 23 25 24 23 22 24 23 22 22 20 14 11 8 8 7 5
4 7 4 2 10 8 4 4 9 8 8 8 2 8 9 7 6 16 19 21 21 23 27 26 24 20 17 22 25 25 24 20 19 18 19 18 16 17 17 11 9 7 6 4
14 11 5 10 4 5 3 6 7 9 6 6 3 9 8 8 14 15 17 25 29 31 31 31 33 29 26 27 28 26 22 20 20 19 18 18 14 11 11 11 8 6 5 4
18 11 7 6 5 8 7 8 7 10 12 10 9 12 15 16 15 19 27 33 35 33 30 32 32 27 26 29 29 26 24 20 18 16 14 13 10 9 9 8 8 5 7 9
13 12 13 11 11 14 15 16 14 13 14 15 17 17 24 29 31 28 30 26 33 25 27 32 30 25 24 23 23 21 19 15 13 12 11 9 8 7 7 5 4 2 2 8
10 12 11 13 12 14 15 13 13 13 14 16 16 22 29 33 34 32 31 33 34 32 31 35 29 22 20 17 14 14 15 14 12 9 8 5 5 5 3 2 1 2 3 2
10 11 11 11 11 12 14 15 14 15 15 22 24 26 27 26 20 25 27 31 34 32 27 23 21 21 20 18 16 15 13 10 8 7 5 3 1 1 1 2 2 2 3 4
15 15 15 16 16 14 14 13 19 22 24 25 30 26 27 27 26 27 28 29 26 24 20 19 19 19 19 15 13 11 10 8 6 3 2 2 3 2 1 2 5 6 8 8
15 20 23 23 26 23 17 23 26 26 25 28 29 28 26 25 25 27 29 26 21 18 17 17 17 17 15 14 12 10 8 6 4 4 2 4 3 4 7 7 6 5 5 5
15 18 20 21 22 27 26 25 27 25 25 27 26 24 23 22 21 20 21 18 18 18 17 15 14 13 11 11 9 9 8 7 6 7 7 7 6 6 6 6 7 6 6 7
17 16 20 23 24 26 27 27 28 27 26 26 24 23 23 22 23 24 21 18 16 15 16 15 14 13 12 12 11 10 9 9 9 8 8 9 9 8 7 9 10 9 10 12
20 22 24 24 24 25 28 28 28 28 27 24 21 23 23 19 16 14 14 16 16 14 16 15 13 12 11 12 11 10 10 11 11 11 10 11 12 13 12 11 10 11 11 10
23 23 22 23 23 23 20 23 25 26 26 26 29 23 20 20 21 20 18 14 14 15 15 15 16 13 13 13 12 13 14 14 13 13 15 13 10 11 11 13 14 13 11 12
24 24 25 24 21 18 21 21 19 20 22 23 23 23 23 22 18 15 17 18 14 14 13 15 14 14 14 15 16 16 14 14 15 12 10 11 12 13 14 14 14 13 11 9
20 20 21 23 20 20 19 19 19 21 17 19 21 22 22 20 19 18 17 15 15 15 16 15 14 14 13 14 13 12 12 13 13 13 12 12 12 14 15 15 14 14 15 17
21 19 18 19 20 20 22 22 19 19 22 20 18 20 20 19 18 16 14 14 14 14 14 14 13 13 13 14 14 14 13 13 13 11 11 12 14 14 13 14 16 18 19 20

GFSNGP_925_spd_048.txt.gz
Wind_Speed
10 15 14 11 14 12 10 6 9 7 9 12 10 9 12 12 7 8 9 9 9 8 9 12 17 24 29 34 31 35 35 36 34 36 38 40 37 37 34 36 33 31 28 24
9 11 15 17 11 16 16 7 6 11 8 9 12 7 5 13 12 10 10 11 12 12 9 11 18 24 28 29 33 34 30 29 27 31 34 33 30 28 30 28 27 26 25 24
6 4 4 9 22 13 5 5 6 7 9 9 8 9 10 12 11 11 10 10 10 14 13 15 22 29 25 27 30 29 27 26 25 28 29 30 32 31 29 26 25 25 23 23
4 4 15 13 6 8 13 11 8 5 5 7 9 10 11 9 16 15 9 9 9 8 8 15 22 23 26 26 27 26 24 23 24 27 27 28 29 29 27 25 24 21 21 21
5 4 8 9 6 5 10 20 8 9 8 6 9 3 5 9 12 14 12 10 9 16 18 22 24 25 27 24 26 27 25 25 27 29 28 27 25 25 23 22 19 19 20 21
4 3 5 5 8 7 2 4 5 5 9 9 4 2 6 7 5 8 9 9 11 18 22 25 25 29 26 22 22 21 26 28 29 29 29 28 27 28 24 23 24 24 22 19
4 4 8 10 16 5 7 6 10 10 10 5 4 6 7 7 5 5 7 11 20 20 20 24 31 30 22 23 20 26 28 29 28 27 27 27 26 24 24 25 26 25 23 21
3 3 9 6 13 5 2 3 4 7 7 7 8 9 4 7 8 9 10 9 17 18 18 25 29 30 21 18 25 28 28 27 25 24 24 23 24 24 26 28 28 25 24 21
6 6 6 7 4 3 4 5 3 6 12 7 9 5 5 7 9 10 10 9 14 17 19 19 23 27 22 20 26 27 26 23 23 22 20 22 24 25 26 27 25 24 25 24
1 9 13 8 7 9 7 6 4 3 7 8 7 7 7 3 4 6 5 8 17 19 15 15 21 24 30 30 29 28 26 25 24 22 20 20 20 20 21 21 23 23 21 20
6 7 4 5 7 7 6 4 2 2 3 6 11 9 6 4 5 6 8 11 17 17 16 16 23 25 29 30 30 28 28 24 21 20 20 18 16 13 16 13 18 23 20 21
4 7 7 8 7 1 4 3 4 3 5 6 3 8 6 7 4 7 9 15 16 16 20 19 22 23 25 27 29 30 25 23 24 26 26 26 26 24 19 14 11 12 12 11
6 16 3 2 9 10 6 8 8 7 6 5 8 6 6 5 6 13 15 17 18 18 21 24 26 24 21 24 27 28 29 26 25 24 23 22 20 20 19 15 13 11 9 8
13 12 5 10 6 11 9 8 10 12 15 15 12 4 7 10 14 16 17 22 27 27 27 28 31 27 23 29 33 32 31 27 25 22 20 18 16 15 12 10 8 6 5 4
14 11 8 8 13 16 14 12 13 14 13 15 21 17 17 17 17 20 23 27 31 33 29 27 31 28 28 31 34 31 31 29 27 23 20 18 16 13 10 7 5 7 9 8
11 8 10 13 12 13 13 15 13 13 13 14 16 19 27 30 30 31 28 25 29 25 27 31 30 27 31 30 28 25 22 20 18 17 15 13 11 10 9 7 6 5 7 10
4 7 10 11 11 12 14 12 12 12 13 14 15 22 27 30 33 32 31 31 32 31 30 32 28 23 22 21 23 22 20 17 14 14 12 10 9 7 5 3 2 2 2 3
10 10 10 11 9 11 13 14 14 16 15 20 22 26 26 25 18 24 26 29 33 33 31 29 27 25 24 22 20 18 17 14 13 12 10 8 6 4 3 2 1 1 1 1
16 14 13 15 16 14 13 12 18 20 21 22 26 24 25 25 25 25 26 27 25 24 22 25 26 26 24 20 19 17 15 13 12 11 9 8 7 6 5 5 4 5 4 3
16 20 22 23 23 20 16 19 21 23 22 23 25 25 24 24 25 27 30 29 24 22 22 22 24 24 22 20 18 17 15 13 13 12 11 10 8 7 7 7 7 6 5 5
15 20 21 21 22 24 25 24 24 24 24 25 24 22 22 21 21 20 23 20 20 22 23 23 23 21 19 17 16 16 15 14 13 12 12 11 10 9 8 8 8 7 7 8
20 19 20 23 24 26 27 27 26 25 25 24 24 23 23 22 23 27 26 22 21 22 23 23 22 19 18 17 17 16 15 14 13 12 13 13 13 12 11 11 10 9 9 8
20 20 21 22 22 22 25 25 25 25 24 23 23 23 23 21 18 16 14 18 22 23 23 21 17 16 16 17 16 15 15 14 13 12 11 9 9 10 10 10 10 10 9 7
20 20 21 21 21 21 19 20 23 24 25 26 27 22 19 19 22 22 22 19 19 20 20 18 17 16 16 15 15 14 13 13 13 12 11 10 10 11 12 12 11 10 8 7
20 20 19 19 18 16 18 16 19 20 21 23 22 22 22 22 22 18 17 18 17 17 17 14 14 13 14 13 13 13 13 13 12 11 11 11 11 12 13 13 12 11 12 14
18 17 19 20 17 16 16 17 17 16 17 19 21 22 21 19 18 17 17 16 16 15 14 13 13 13 13 13 11 10 10 10 9 9 10 11 12 13 13 12 13 16 19 19
18 17 16 17 19 22 21 20 20 18 19 20 19 18 18 18 18 17 15 14 14 13 13 13 13 14 14 12 12 11 11 11 11 12 14 14 13 12 14 16 18 20 19 19

GFSNGP_925_spd_054.txt.gz
Wind_Speed
2 7 4 5 9 8 6 7 9 5 8 9 12 11 12 10 7 7 9 8 9 10 11 13 20 24 27 30 32 34 36 37 44 42 38 36 38 39 36 37 41 39 41 38
3 3 5 3 6 8 8 6 7 7 8 9 10 6 7 10 9 9 10 10 9 8 7 9 19 25 28 29 34 33 33 38 36 32 33 37 37 38 37 38 37 37 38 37
2 4 7 4 1 3 7 8 5 8 8 9 8 7 8 13 10 12 11 11 11 12 13 12 23 29 28 34 28 32 33 33 31 30 32 35 35 34 36 36 34 36 38 36
2 3 3 4 0 8 2 4 11 16 15 14 10 10 9 8 9 10 10 10 12 10 10 21 26 27 31 26 30 29 28 28 28 31 31 30 30 31 29 30 33 32 33 31
3 2 6 5 3 1 4 17 12 8 12 14 17 10 9 7 8 10 9 11 11 14 20 23 23 27 26 22 27 27 26 27 27 29 26 25 24 26 27 26 23 22 23 22
2 1 4 5 3 3 6 8 2 3 8 13 15 6 7 11 6 9 9 9 11 10 12 17 21 23 24 20 20 17 18 18 17 19 18 20 22 21 21 21 20 19 18 15
2 3 8 6 4 1 4 6 4 1 4 6 5 5 14 18 13 8 6 9 11 10 12 17 17 21 16 14 13 16 15 14 13 12 14 15 16 16 19 20 22 21 22 20
4 3 8 6 3 3 6 3 3 5 4 4 9 16 12 12 10 8 7 7 8 4 5 4 11 16 14 14 17 18 17 16 14 13 12 13 16 18 20 23 26 25 27 25
8 7 3 1 4 5 3 7 6 3 11 5 7 11 13 12 13 8 7 6 10 8 11 11 10 13 18 15 18 18 18 17 16 14 14 16 19 21 22 23 23 21 22 22
2 2 3 4 4 9 11 14 12 8 6 9 8 13 10 8 9 7 7 6 9 11 10 10 16 16 19 18 17 19 20 19 18 20 20 17 17 17 19 20 20 20 20 19
6 3 8 5 10 12 14 16 9 11 8 8 9 11 11 9 8 5 6 9 14 13 11 15 17 20 18 20 21 23 23 22 22 22 22 22 19 14 14 13 14 21 20 21
3 4 3 9 8 14 13 15 15 13 13 12 13 12 12 11 11 11 9 16 16 19 18 21 22 22 15 14 18 26 24 20 21 23 22 22 24 27 20 11 7 9 15 18
4 7 9 10 7 12 10 11 11 12 13 14 15 12 13 12 18 22 24 21 22 20 22 23 25 28 20 14 17 22 23 20 19 19 19 19 19 20 24 28 27 21 18 17
6 8 3 8 4 9 11 11 11 12 14 14 14 17 18 15 23 23 23 23 24 26 25 23 27 31 26 22 26 30 31 27 24 21 22 23 23 20 18 16 17 19 15 16
10 10 3 3 6 7 9 10 12 10 11 14 18 16 19 16 16 21 23 24 29 31 30 29 28 28 30 27 32 30 28 27 27 25 23 20 18 18 17 16 16 17 16 14
12 7 4 7 7 7 11 12 9 12 12 11 11 19 22 23 26 29 30 29 30 26 27 29 31 30 30 32 32 31 29 28 26 24 22 21 20 19 17 16 14 12 10 8
6 2 5 7 8 10 14 9 9 9 10 12 16 20 21 24 28 27 28 30 34 33 30 31 31 32 31 31 32 29 28 28 26 25 23 21 20 19 17 16 15 14 12 9
7 8 8 7 8 8 11 12 14 16 14 17 18 22 25 24 17 22 24 28 32 35 34 32 32 31 30 30 30 28 27 25 24 22 21 21 19 17 17 16 14 12 10 9
12 12 13 14 14 12 13 14 18 20 19 18 23 24 25 25 24 23 25 28 27 26 26 28 29 30 30 27 26 25 24 23 22 22 20 19 19 18 17 16 15 14 12 11
11 16 19 19 19 18 17 18 20 20 18 20 22 24 24 23 23 26 28 29 26 22 23 25 28 28 25 23 22 21 20 20 19 19 18 17 17 17 16 15 14 13 11 10
11 17 17 18 19 22 21 20 22 21 22 24 25 23 22 21 22 21 22 19 21 23 25 25 25 23 22 20 20 20 20 21 21 19 18 18 17 16 15 13 12 11 10 8
15 15 17 19 20 21 22 23 23 23 22 21 20 20 20 20 23 26 24 20 20 21 23 24 23 20 19 18 18 18 18 18 18 17 17 16 15 14 13 12 11 10 9 6
17 18 19 20 20 20 23 23 23 22 21 20 19 19 20 18 15 14 13 15 18 19 22 21 19 19 18 18 18 18 17 17 16 14 13 12 12 11 11 10 9 8 7 8
16 18 18 18 18 19 17 17 18 19 20 20 19 16 15 16 18 18 18 16 16 17 19 17 16 15 14 14 13 13 13 12 12 11 10 9 9 8 7 7 7 8 9 12
15 15 15 15 14 13 13 12 14 14 15 15 14 14 13 12 15 14 15 15 14 14 15 14 13 12 11 11 10 10 10 10 9 9 9 8 7 6 7 7 9 11 13 15
14 13 14 14 12 11 11 13 13 12 14 17 16 15 15 15 15 14 13 13 12 12 12 12 12 11 10 8 8 8 7 7 8 8 8 7 7 8 9 11 13 16 19 21
17 15 15 16 16 14 14 15 16 13 12 14 15 13 12 12 11 11 10 10 10 10 10 10 11 11 10 7 6 6 7 8 9 9 9 9 10 12 15 18 20 20 19 18

GFSNGP_925_spd_060.txt.gz
Wind_Speed
2 2 1 3 5 4 8 8 7 6 10 9 7 8 12 15 15 14 13 10 9 10 9 10 17 22 25 27 29 32 34 35 39 37 35 35 35 35 35 34 37 38 38 38
2 3 3 5 6 8 7 9 9 11 12 1 9 10 9 13 15 16 16 15 16 10 9 11 15 20 24 27 29 30 33 38 34 34 34 35 35 34 33 34 34 35 35 36
8 2 3 7 12 10 7 7 7 8 2 7 10 10 12 15 13 13 15 18 16 15 11 11 14 17 22 25 24 29 32 31 31 32 33 33 31 32 34 34 32 35 35 34
4 2 7 1 4 2 5 5 5 4 7 7 9 12 12 8 14 15 15 16 18 15 14 20 16 14 17 20 24 28 30 29 29 30 30 29 29 31 30 29 30 30 31 31
5 10 8 6 6 5 7 4 4 4 6 8 8 11 9 11 14 16 17 15 14 21 22 22 20 19 17 18 24 25 27 27 27 27 26 27 28 28 27 26 25 25 24 27
5 7 6 3 7 2 2 5 6 6 9 9 9 5 4 15 15 17 19 20 18 21 20 19 18 18 16 14 16 22 21 22 22 24 25 26 25 23 22 22 19 20 21 22
10 7 4 8 2 4 7 3 12 13 11 9 6 5 11 13 14 15 18 23 22 20 19 20 21 18 15 12 8 7 7 12 15 17 19 19 17 16 17 19 17 13 11 6
11 8 8 3 2 3 5 7 11 12 11 10 10 11 11 13 13 15 19 23 24 19 22 25 23 16 8 7 7 6 10 13 11 12 13 14 17 16 16 18 18 17 17 16
8 6 6 7 9 7 6 5 8 11 11 10 9 9 10 11 12 12 16 23 23 19 22 27 28 20 14 14 11 13 19 22 20 18 17 15 13 14 14 12 15 15 20 18
2 4 4 4 6 8 8 7 7 8 10 11 12 10 9 9 10 11 15 19 23 18 21 23 28 25 18 15 15 20 22 24 22 24 25 25 21 15 16 17 17 14 20 18
7 8 5 6 4 7 8 7 7 7 8 9 10 10 11 10 9 10 16 18 19 18 20 21 22 25 24 15 17 23 23 22 22 23 28 32 32 22 20 18 20 18 18 20
5 5 3 3 5 6 6 8 10 11 11 10 11 9 9 10 13 9 21 19 17 17 20 23 22 25 24 18 15 22 20 19 19 18 18 22 29 34 33 29 26 23 22 24
1 3 5 5 4 4 5 7 8 9 9 9 9 9 9 8 14 17 20 16 16 17 19 21 23 28 29 22 29 25 26 22 22 20 19 17 24 23 27 36 38 33 30 27
4 7 4 4 2 7 6 5 6 9 11 11 10 12 12 14 17 19 18 18 17 19 24 24 27 27 23 24 30 33 34 28 25 21 21 20 17 17 20 23 23 25 26 26
7 6 6 5 8 9 9 6 8 9 10 12 15 14 15 16 17 17 17 19 20 25 26 27 26 27 28 30 32 29 26 25 26 25 24 22 19 19 20 20 20 19 18 18
9 4 8 8 7 8 7 8 9 9 10 12 14 17 18 20 20 21 24 24 25 24 24 25 27 26 25 25 23 24 24 28 24 22 20 19 18 17 17 18 17 16 15 12
5 3 4 5 7 8 9 9 9 9 11 14 14 15 17 20 21 23 23 24 26 26 24 26 24 26 26 23 20 20 20 22 22 22 20 19 18 17 16 16 16 15 15 14
5 6 7 7 7 9 10 11 13 15 15 17 17 17 18 20 18 19 19 19 21 27 26 23 23 23 24 22 21 19 19 19 20 20 19 19 18 17 16 15 13 12 12 13
8 9 12 13 14 14 13 15 16 18 17 17 19 19 18 19 19 19 17 20 22 22 22 21 22 22 22 22 18 18 18 17 17 18 17 16 16 15 14 12 11 10 9 9
13 16 18 19 18 17 17 16 18 18 16 17 17 17 19 18 17 18 20 23 20 17 16 17 18 20 19 19 18 18 17 17 17 17 16 14 14 13 12 12 9 9 7 8
14 17 17 18 19 19 18 17 17 18 16 16 17 18 18 17 15 13 15 16 17 16 17 19 19 16 17 16 16 16 16 16 16 14 14 13 12 11 10 9 9 8 7 6
14 15 17 17 18 19 17 17 17 17 17 17 16 15 15 15 16 18 18 16 14 16 16 17 17 17 16 16 16 16 15 15 14 13 12 11 10 9 9 8 7 6 5 6
16 16 16 16 17 18 17 17 16 16 16 15 14 14 14 13 11 9 11 12 11 12 12 12 13 12 12 12 12 12 12 12 11 10 9 8 8 7 6 6 6 6 6 7
15 15 15 14 14 14 14 13 14 14 14 13 12 9 8 9 11 11 10 10 11 11 11 11 11 12 11 10 11 11 10 10 9 9 8 7 6 6 6 6 6 7 7 8
13 12 11 10 10 10 11 10 11 10 10 11 10 11 10 10 8 7 7 7 9 9 9 11 12 11 10 9 9 8 8 8 7 7 6 6 5 6 6 6 7 8 10 9
9 9 10 9 8 8 7 6 7 6 7 8 8 8 8 8 7 6 7 7 8 8 8 9 9 8 7 7 7 7 7 7 7 6 5 5 6 6 8 9 9 9 9 9
10 9 9 10 9 8 7 6 6 7 6 6 7 5 5 5 5 5 5 5 6 6 7 7 7 7 6 6 7 7 7 7 8 6 6 6 7 8 9 9 9 9 9 9

GFSNGP_925_spd_066.txt.gz
Wind_Speed
14 16 17 21 14 14 12 14 5 6 12 8 12 10 4 5 9 14 15 15 15 15 14 15 8 12 19 21 24 26 27 28 30 31 33 34 37 39 39 39 39 40 40 43
6 12 12 16 12 13 21 20 12 8 12 10 10 7 8 11 14 14 13 13 14 15 16 16 20 22 24 11 22 25 28 31 27 30 31 36 36 34 36 38 40 38 41 40
4 12 11 10 11 16 13 12 12 6 9 4 10 1 8 13 12 12 11 13 14 15 14 19 26 30 29 27 24 20 26 28 29 29 31 33 33 33 37 38 36 40 40 39
4 4 4 4 3 14 6 4 6 5 3 5 9 9 15 14 12 11 11 12 12 10 16 22 25 28 30 33 32 27 19 25 26 27 30 30 30 35 35 34 34 35 36 36
4 4 4 5 4 6 13 5 11 12 7 8 6 7 12 14 12 12 13 13 12 20 20 21 24 26 24 23 29 24 30 31 19 28 29 28 29 32 32 30 30 32 30 31
5 5 3 2 11 7 6 7 10 8 9 7 4 9 8 10 15 14 14 19 17 20 19 20 23 23 20 22 24 27 33 33 32 36 28 31 31 32 30 30 30 27 22 15
10 6 7 5 3 2 8 5 9 11 11 12 8 10 11 14 13 15 17 21 22 21 21 22 24 23 21 21 23 24 25 27 29 29 24 16 13 16 23 21 19 15 14 11
11 8 12 6 1 3 11 10 10 12 10 8 11 12 12 14 14 15 15 21 23 20 21 24 26 24 22 23 23 21 25 27 28 28 25 20 13 14 15 19 20 19 19 18
10 9 6 12 15 12 12 11 10 10 10 10 11 11 12 12 15 15 19 21 22 21 21 24 27 26 21 23 20 20 30 31 32 30 27 24 24 19 19 17 18 21 21 20
5 11 13 15 14 14 14 13 11 10 11 11 10 13 11 14 13 13 19 21 22 22 22 23 24 24 23 20 16 18 25 32 32 31 32 29 30 30 26 21 17 16 19 23
5 10 14 13 13 13 16 13 11 12 13 13 12 12 12 12 13 14 18 19 20 20 20 21 22 24 26 26 18 17 20 25 34 29 25 32 41 33 33 38 28 22 21 22
4 3 9 16 13 16 14 12 12 12 12 14 13 12 12 11 14 15 15 16 17 19 19 19 21 24 27 29 26 22 23 23 25 31 17 24 28 37 46 47 47 35 39 31
6 13 18 17 16 15 13 11 13 13 12 11 13 14 15 12 15 15 16 17 18 18 18 20 23 27 29 30 29 27 24 23 23 23 17 17 22 20 30 36 41 36 34 34
14 8 14 17 8 11 12 12 15 16 16 15 14 15 14 15 16 17 17 17 18 20 22 24 26 28 28 30 30 27 25 27 24 24 23 23 24 23 21 22 21 22 29 33
14 14 12 10 10 11 11 11 12 11 11 13 15 16 16 16 17 19 17 17 19 23 24 25 27 30 28 26 28 28 24 23 22 22 22 21 20 21 20 20 19 20 19 27
7 10 11 11 10 10 10 11 11 10 10 12 13 16 18 19 20 21 21 21 22 22 23 25 28 29 28 24 22 23 25 26 24 22 22 23 22 20 21 21 22 24 24 21
5 9 8 8 10 9 10 10 10 10 13 15 16 16 17 18 20 20 20 21 23 24 24 25 24 26 25 24 22 21 20 21 22 22 22 21 20 19 18 17 18 20 21 23
9 9 9 9 9 9 11 13 15 15 14 16 17 19 19 17 16 17 16 16 18 23 24 22 21 23 24 22 20 20 19 18 18 19 19 21 19 17 16 17 17 17 18 20
14 12 14 15 15 15 15 16 16 16 15 15 17 17 16 16 16 16 16 17 18 18 22 21 20 21 22 22 18 18 18 18 18 19 18 18 19 20 20 18 17 17 17 16
14 16 17 18 18 17 17 16 16 16 14 14 16 14 14 13 11 15 18 19 17 15 16 18 18 19 18 19 19 19 19 19 17 16 17 17 16 16 15 16 15 16 15 14
13 15 16 16 17 17 17 15 16 16 14 15 14 13 13 13 16 14 12 13 14 13 13 15 17 16 15 15 17 17 17 16 16 16 16 15 15 15 15 14 14 14 13 12
13 13 14 15 16 16 16 15 14 13 12 12 9 6 10 11 15 18 17 13 10 12 11 12 12 15 15 14 14 14 14 15 14 14 14 14 14 13 12 12 12 10 10 10
14 14 14 14 14 15 14 14 14 13 13 12 11 11 11 10 10 8 8 9 9 10 10 11 12 14 13 12 13 13 13 14 14 13 11 12 11 10 10 9 10 11 10 9
14 13 13 13 13 12 12 10 10 9 10 9 9 12 8 7 10 9 8 7 7 3 12 12 11 13 11 11 11 12 11 11 11 12 10 9 9 9 9 9 8 9 9 9
11 11 10 9 9 8 8 8 8 7 7 7 7 8 8 10 10 5 7 6 8 8 7 11 10 11 9 9 10 10 10 10 9 9 8 9 8 8 8 8 8 9 8 7
7 8 8 9 7 5 4 2 4 5 3 6 6 5 5 6 5 4 3 5 4 6 6 7 8 10 9 9 9 9 9 9 8 8 9 9 8 8 8 8 8 8 9 9
7 5 6 6 6 7 7 7 3 5 6 6 6 4 3 3 4 3 4 4 6 6 7 8 8 9 6 11 8 8 9 9 9 9 9 8 9 9 9 9 10 10 10 9

GFSNGP_925_spd_072.txt.gz
Wind_Speed
5 11 11 12 13 12 15 16 6 3 4 9 4 4 5 7 11 18 19 19 17 14 12 17 21 21 21 22 22 13 16 23 21 22 26 27 28 31 35 36 35 35 35 35
4 4 6 13 13 13 12 17 17 17 13 4 9 6 9 6 11 16 18 17 17 15 15 16 20 21 22 23 24 23 24 17 1 18 27 29 30 32 34 35 35 36 37 36
4 7 11 6 7 11 7 15 18 8 4 8 8 8 7 11 13 14 15 15 13 14 14 18 17 17 19 19 20 23 23 23 22 18 13 9 23 30 33 33 33 37 38 38
3 6 4 4 17 12 14 12 8 5 10 14 17 11 13 12 15 14 15 15 14 11 15 16 17 18 18 19 21 21 21 20 22 22 20 18 14 12 24 31 34 36 37 38
2 2 10 15 6 7 3 4 3 15 8 20 20 17 14 13 15 15 14 12 14 16 17 17 20 20 20 21 21 22 22 19 19 18 18 19 18 19 18 18 23 35 32 32
2 2 4 3 6 5 6 3 6 15 19 19 11 5 7 12 14 16 18 17 16 18 19 23 25 21 20 22 23 24 23 20 17 17 15 17 17 20 20 15 8 3 5 7
5 4 7 7 5 3 2 1 3 13 12 11 7 10 13 13 15 18 18 19 18 20 21 20 18 17 20 21 24 20 20 21 21 20 17 17 15 17 16 14 18 23 25 27
4 4 8 6 6 8 5 8 8 14 16 19 17 16 14 13 13 14 14 17 16 17 17 17 19 17 19 20 17 19 20 24 26 25 24 24 22 20 21 22 25 24 25 27
6 6 2 8 5 12 18 12 8 12 15 16 16 13 12 13 14 13 15 14 15 15 16 18 19 19 18 17 16 17 22 24 26 28 28 29 29 25 23 22 22 21 21 20
3 3 8 12 13 13 15 16 15 12 15 14 14 12 13 12 11 10 14 14 14 16 18 18 19 21 20 15 16 18 20 20 21 26 31 31 30 32 29 25 23 21 20 20
4 11 16 14 15 11 15 16 17 16 15 14 14 13 12 11 11 13 14 14 14 16 17 18 18 23 25 22 17 18 19 19 20 22 24 29 37 33 32 37 29 25 25 24
3 6 10 8 11 11 15 14 12 15 16 14 13 13 12 10 14 15 14 13 16 17 18 18 21 23 24 22 20 18 20 20 20 19 20 21 23 28 37 36 37 35 31 29
6 14 13 9 13 12 13 13 15 16 14 15 16 16 16 15 16 17 16 17 17 16 17 20 22 24 25 24 25 24 20 19 19 20 20 20 20 19 18 23 31 33 32 31
11 10 10 9 6 11 13 16 21 20 20 18 18 18 18 18 17 17 15 13 15 19 22 23 26 27 23 22 22 23 22 20 18 20 21 21 22 21 20 18 18 21 26 27
12 13 12 11 12 13 16 13 11 11 12 14 16 17 17 16 15 14 13 15 18 24 25 25 26 25 21 21 22 22 21 19 20 20 19 19 20 21 20 20 19 18 20 23
9 10 10 12 10 10 10 9 10 9 10 13 14 16 16 17 16 16 17 18 20 19 23 25 24 20 17 16 19 20 19 17 19 20 19 20 19 19 19 19 19 19 20 19
5 6 7 10 9 9 9 8 8 10 13 14 15 15 15 16 16 16 18 20 22 23 23 23 21 18 16 15 15 16 17 17 17 18 19 17 17 16 16 17 18 19 20 18
9 8 9 9 8 9 9 12 13 13 13 13 17 18 17 14 12 14 15 16 18 21 21 20 17 15 16 14 14 15 16 17 17 18 17 18 17 17 17 18 18 18 18 17
12 12 14 13 12 13 12 12 13 15 16 17 19 16 16 16 16 15 14 17 17 18 16 14 15 16 15 13 14 16 17 16 16 17 18 18 18 17 17 18 17 15 15 15
13 15 16 16 15 16 15 15 17 17 18 20 20 18 17 17 16 16 16 17 13 9 9 11 12 15 14 14 14 15 14 14 15 16 16 17 17 16 16 15 15 13 13 13
10 14 14 15 15 18 18 18 19 16 15 16 18 16 16 14 12 10 11 10 9 7 9 12 13 13 13 12 12 13 13 13 14 13 12 13 13 12 12 12 12 11 9 8
13 13 14 15 15 17 18 18 18 17 17 17 17 18 17 15 13 13 10 9 7 8 9 11 12 11 10 9 10 9 9 11 11 10 10 9 8 9 8 7 7 6 6 5
15 15 17 17 16 16 15 15 14 15 14 12 10 9 9 6 6 8 7 7 9 7 8 9 8 8 7 7 7 9 8 6 7 7 7 7 6 5 4 4 5 6 5 4
16 15 16 16 15 12 9 9 10 14 14 13 10 9 10 12 10 8 8 5 7 9 7 6 5 5 4 5 6 6 5 6 7 7 4 2 4 3 3 3 5 7 5 4
12 12 12 9 8 8 11 11 12 11 11 10 9 9 7 2 1 7 6 6 5 5 5 5 6 6 5 2 2 5 4 3 5 6 7 2 2 3 4 5 6 6 7 8
9 10 11 10 7 4 8 9 9 10 13 12 9 6 6 5 6 6 5 3 2 1 2 2 2 5 4 3 3 3 4 5 5 5 6 5 6 6 7 8 8 9 10 12
9 12 13 13 12 11 10 12 11 8 10 9 9 6 5 4 4 3 3 1 2 1 3 4 3 3 1 3 3 4 5 6 7 7 8 8 8 9 10 11 11 11 13 14

GFSNGP_925_spd_075.txt.gz
Wind_Speed
6 8 6 10 14 12 12 9 5 3 7 7 9 8 7 9 10 14 16 16 15 14 12 17 20 21 20 20 18 13 12 13 14 19 22 24 25 28 31 31 31 33 32 34
4 7 8 13 13 14 13 13 8 10 19 2 5 11 9 7 11 14 15 14 15 14 14 15 21 22 19 18 17 18 19 14 10 9 1 17 24 28 30 31 32 33 33 33
3 5 9 7 2 9 10 10 8 8 9 6 7 5 14 13 12 10 8 12 14 13 13 19 21 16 18 17 16 20 19 18 16 13 10 8 7 5 13 22 28 31 33 33
3 4 4 5 16 5 8 12 12 8 6 5 14 15 13 11 15 10 10 13 11 11 17 18 18 18 19 20 21 21 21 17 16 14 13 13 12 12 12 13 12 18 28 30
2 2 9 12 3 7 8 4 3 4 13 18 20 18 14 13 13 12 10 8 11 16 14 17 18 18 16 17 18 18 19 18 18 16 15 15 15 15 15 15 14 12 7 4
2 1 4 4 10 3 5 5 4 4 17 18 13 6 2 9 11 11 13 14 16 15 14 17 16 14 15 16 18 20 18 16 16 16 15 15 15 15 14 13 13 13 18 21
3 4 7 9 12 10 1 2 8 6 19 12 4 6 15 11 11 13 13 14 14 15 15 15 14 13 16 17 19 16 17 18 19 18 17 18 18 21 19 20 20 22 24 26
2 3 9 6 8 4 2 6 11 10 13 19 18 16 14 11 11 10 12 16 15 16 18 19 20 17 17 19 16 16 18 22 22 23 23 23 22 23 23 21 22 21 20 23
5 4 4 5 9 11 8 12 15 13 15 14 18 15 14 11 11 10 14 14 14 14 16 18 19 19 18 17 16 17 19 23 25 25 25 27 26 24 24 23 22 21 21 21
1 6 6 8 11 15 14 11 13 15 15 12 15 13 14 11 10 9 12 13 13 15 17 18 20 22 20 15 17 17 20 21 21 27 28 27 28 27 24 22 21 20 20 20
5 6 10 12 12 13 15 14 17 16 14 14 14 13 11 11 10 12 14 15 15 16 18 18 16 17 18 15 13 16 17 17 19 20 22 28 34 30 30 35 27 21 23 22
2 2 8 7 8 11 14 13 13 14 15 14 12 12 12 10 14 14 14 14 16 16 17 17 19 19 17 16 15 14 16 16 17 18 19 19 19 26 31 31 31 31 29 24
1 9 13 12 12 11 15 14 12 14 13 13 15 15 17 15 16 17 16 16 16 14 15 16 19 20 16 15 15 17 17 19 19 20 21 21 21 19 16 20 27 28 28 27
8 4 7 10 8 12 15 19 20 19 16 16 16 16 17 17 16 17 17 14 14 15 17 17 18 19 16 15 16 16 18 16 18 18 19 20 20 19 18 17 17 20 22 24
10 13 13 11 12 11 14 13 13 11 10 13 15 15 14 15 15 14 13 12 14 20 20 19 20 18 15 16 17 18 18 19 19 19 19 19 20 20 20 20 20 19 20 21
6 8 9 11 10 9 10 11 12 10 9 12 13 14 14 15 15 15 15 15 16 16 19 19 18 15 13 13 15 17 17 16 18 19 19 19 19 19 19 19 19 20 23 20
4 4 5 7 8 10 11 9 10 9 14 14 14 13 13 14 15 15 18 18 20 21 19 18 16 13 12 12 14 15 16 16 15 17 17 16 16 17 17 19 19 20 20 18
9 9 11 8 8 10 10 12 13 13 12 12 15 15 15 14 13 14 14 14 16 18 17 16 14 13 14 13 13 14 15 16 17 17 15 16 16 16 17 17 16 17 16 17
12 11 13 14 13 13 10 10 12 14 14 15 17 16 16 16 15 14 12 13 15 16 14 13 12 12 13 12 12 13 13 14 15 15 15 14 15 15 14 14 13 12 12 12
11 13 14 16 15 14 13 15 17 17 14 16 17 16 16 14 12 12 12 16 12 8 9 9 10 12 13 12 11 12 12 12 14 14 13 13 13 12 11 11 9 8 7 8
11 12 14 15 15 17 17 16 17 15 12 11 13 14 13 10 7 6 8 11 8 7 7 8 10 11 11 10 10 10 10 11 11 11 10 10 9 9 8 7 7 6 5 5
11 12 13 14 15 14 12 11 11 11 10 10 9 8 7 7 6 7 7 5 5 6 7 8 9 8 8 7 8 7 8 8 8 7 7 6 6 5 5 4 4 5 5 5
12 13 14 14 13 14 12 11 11 12 13 12 10 9 5 4 2 3 2 4 4 4 5 6 6 6 5 4 6 7 6 6 6 6 4 3 2 2 2 2 3 5 7 5
12 12 13 13 13 11 8 8 8 8 8 7 6 5 5 6 4 3 4 4 5 4 3 4 4 4 4 3 3 4 4 4 6 6 5 3 2 2 3 4 6 7 7 7
10 11 11 9 6 6 8 9 10 8 7 6 5 4 3 3 3 4 4 4 3 2 2 2 3 4 6 2 2 4 4 4 3 5 6 5 6 6 6 6 7 8 8 8
8 6 5 3 4 6 9 10 11 11 10 8 7 5 3 4 4 4 4 3 3 2 2 3 3 3 3 3 4 5 6 7 6 6 7 7 7 8 9 9 10 10 10 11
11 12 11 10 7 4 4 8 8 11 13 11 9 8 5 5 5 3 5 5 5 5 5 6 6 6 6 6 7 8 10 10 9 9 9 10 10 11 12 13 13 12 11 12

GFSNGP_925_spd_078.txt.gz
Wind_Speed
1 3 3 3 8 9 9 11 6 8 7 6 4 6 1 8 11 12 15 16 16 14 12 15 19 21 21 20 18 7 6 6 5 5 11 15 18 20 20 20 21 22 23 25
3 3 4 5 12 10 13 12 13 14 17 9 6 8 8 9 8 11 13 15 16 14 15 14 19 20 19 20 19 19 18 15 11 9 8 6 4 9 17 22 25 26 26 28
3 4 7 5 2 5 6 9 10 10 11 5 2 10 12 14 9 10 12 13 13 13 15 18 19 17 18 16 18 24 19 17 15 13 13 11 8 5 5 4 4 7 17 26
2 3 2 5 13 5 6 6 9 5 0 10 11 12 15 10 13 11 11 10 9 11 17 18 15 15 16 26 23 19 21 19 16 16 14 14 14 13 12 10 9 9 9 9
1 1 6 7 3 6 9 17 7 5 13 16 16 15 12 12 11 11 11 8 10 15 14 12 18 20 21 21 18 19 18 18 17 16 16 16 16 16 14 12 14 17 18 17
2 1 3 5 3 10 6 5 4 2 13 16 13 4 3 8 9 13 15 15 15 16 16 20 21 22 22 20 19 21 21 19 17 16 16 16 15 16 16 18 19 20 24 26
2 2 6 6 11 7 1 4 9 6 13 13 4 7 11 9 12 15 15 15 14 16 18 18 17 18 20 19 22 19 18 21 23 20 21 19 21 21 20 21 23 25 27 28
3 3 7 10 7 4 6 7 8 17 9 16 16 16 14 11 12 11 13 15 14 16 17 19 19 19 20 21 17 19 22 23 23 25 24 23 23 23 22 19 21 21 21 23
5 3 2 7 6 8 8 7 7 15 12 12 13 14 13 10 11 12 14 15 15 16 17 21 23 21 20 18 18 18 20 24 25 26 26 27 25 24 24 22 21 20 21 21
1 2 4 5 7 12 13 15 13 9 13 12 14 11 13 10 11 10 15 15 15 16 17 17 17 20 18 16 16 17 19 20 21 25 25 26 28 28 24 22 21 20 20 20
4 3 5 7 7 8 13 15 16 14 14 14 14 13 12 11 11 13 14 15 16 16 16 17 18 20 20 18 16 18 18 18 19 19 23 29 34 29 29 33 25 22 22 22
1 7 3 7 8 9 12 13 12 14 14 15 14 13 13 11 14 13 14 15 16 15 16 17 19 20 18 18 17 17 19 19 18 20 20 20 20 26 29 27 27 27 25 24
2 6 12 11 11 11 13 13 13 15 14 14 16 17 17 15 16 15 15 15 15 14 15 19 20 21 18 17 17 19 19 17 18 19 20 20 20 19 18 17 23 24 24 24
6 6 8 10 6 8 13 16 19 19 20 17 17 17 16 17 17 16 15 13 13 16 17 19 20 21 17 14 15 16 16 15 16 16 17 17 17 17 18 19 18 21 20 21
10 12 10 8 8 8 12 12 12 12 11 12 16 16 15 15 15 14 14 13 15 20 20 20 21 20 16 14 13 14 14 14 15 15 15 16 17 18 18 19 20 20 19 19
8 9 9 10 9 9 9 10 11 9 8 12 15 15 15 16 16 16 16 16 17 17 19 18 18 15 13 10 11 12 12 11 12 14 15 15 15 16 17 18 20 21 22 19
2 5 7 8 8 9 10 9 9 9 12 13 14 14 14 15 16 16 17 17 19 19 18 17 15 11 10 9 9 9 10 10 10 12 14 14 14 16 16 18 19 20 19 17
9 9 10 8 9 9 9 12 12 13 12 13 15 16 16 14 12 13 13 13 15 16 16 14 11 10 10 9 8 8 9 11 12 13 12 13 14 14 14 15 15 15 15 14
13 11 13 13 12 12 11 12 13 15 16 17 19 17 16 15 13 13 10 12 13 14 13 11 9 9 10 9 8 9 10 11 12 12 12 12 13 13 12 12 11 11 10 11
11 12 13 14 14 14 14 16 18 19 18 20 20 18 17 14 12 12 11 14 11 8 8 8 8 10 10 10 8 9 9 10 11 11 10 10 9 9 9 8 7 7 7 7
10 12 14 15 17 18 17 17 19 18 15 14 17 16 14 10 8 7 8 9 7 6 6 7 8 9 10 9 9 8 8 8 8 8 7 7 6 5 5 5 4 4 5 4
11 11 14 17 17 15 13 13 14 14 14 13 12 10 10 10 9 9 8 5 5 5 6 7 8 8 7 7 7 6 6 6 6 5 4 4 3 3 2 3 3 5 6 6
13 14 15 15 15 14 13 13 12 12 12 10 9 7 5 4 3 2 3 4 4 4 4 5 6 6 6 6 6 6 5 4 4 4 4 3 2 2 3 4 6 7 8 7
11 11 12 11 11 10 9 7 6 6 5 4 3 3 3 3 4 3 3 3 4 4 3 3 5 6 6 5 4 4 4 5 5 6 7 5 5 5 6 6 7 8 8 8
10 9 9 6 3 3 4 5 6 6 5 4 2 1 1 3 4 1 2 2 0 1 3 3 4 5 6 3 3 4 4 5 6 6 7 6 6 7 8 9 9 10 10 10
7 6 4 1 3 6 7 8 9 9 7 7 4 3 1 0 1 1 1 2 3 5 5 6 7 7 7 7 7 8 9 10 11 10 10 10 10 10 11 11 12 13 13 12
9 9 9 8 6 4 0 7 7 9 10 9 6 4 4 4 4 4 5 7 7 8 8 8 8 9 10 10 10 10 10 13 13 12 12 12 13 13 12 14 15 14 14 14

GFSNGP_925_spd_084.txt.gz
Wind_Speed
1 2 3 4 5 6 8 8 6 10 16 16 14 12 2 6 7 9 11 12 13 12 11 15 18 19 19 19 20 21 19 16 14 14 12 10 8 8 8 9 9 9 10 11
4 4 1 5 6 7 9 9 11 12 14 6 14 5 8 7 7 10 11 11 12 12 13 13 18 19 18 18 21 22 20 17 14 15 16 15 13 11 11 9 7 8 7 8
1 5 6 6 6 1 1 2 7 10 15 15 6 11 9 7 9 10 11 11 11 12 12 17 18 17 18 18 18 21 23 20 18 17 16 16 16 15 16 15 14 15 13 11
1 4 3 7 1 6 4 8 14 13 14 11 11 12 14 12 7 8 10 11 11 10 15 16 15 16 18 22 23 21 20 20 20 20 19 16 19 19 19 19 19 18 17 15
2 1 5 6 6 6 6 3 12 14 14 3 9 9 11 11 11 8 10 8 13 13 14 15 16 15 22 22 21 23 25 23 20 22 20 17 22 23 21 24 25 23 22 21
1 2 1 7 8 11 6 6 16 16 16 16 8 3 3 8 9 8 12 15 16 13 16 14 15 17 25 20 23 25 26 23 16 21 28 24 19 21 22 23 23 23 27 23
5 3 2 8 15 13 5 7 16 13 12 14 3 6 12 11 9 10 13 15 16 17 17 16 17 21 27 25 25 23 20 24 18 21 21 20 19 18 21 21 21 21 22 23
4 4 4 13 4 6 7 7 7 9 9 12 14 13 13 11 10 10 15 18 18 18 20 19 19 20 23 26 20 19 19 19 20 20 18 20 20 18 20 21 21 19 18 20
3 4 8 8 7 6 7 4 5 7 10 10 10 11 11 11 11 11 17 17 17 17 19 21 21 21 24 19 17 19 20 20 21 22 22 20 20 18 20 20 19 17 17 17
5 7 9 7 6 6 7 9 10 11 12 11 11 10 9 9 10 12 16 17 16 17 20 21 20 21 20 17 16 18 21 21 21 23 23 22 23 21 21 21 17 16 15 16
2 8 8 10 8 6 9 10 11 11 11 12 9 9 9 11 11 16 18 18 17 18 18 19 19 20 18 15 14 17 18 18 19 22 24 28 30 24 26 27 18 15 16 15
3 4 3 4 6 8 11 10 9 10 11 11 11 9 11 10 15 16 17 16 18 18 17 17 19 20 18 15 13 14 15 14 14 15 16 17 18 23 26 25 24 24 21 16
2 7 11 10 10 10 11 10 11 11 11 11 12 13 16 16 17 18 18 17 18 17 16 17 18 19 16 15 14 14 14 14 14 13 13 12 10 10 12 16 23 23 22 21
8 8 6 5 6 8 10 12 14 14 13 12 12 14 16 17 17 17 17 16 15 15 16 15 16 18 15 13 13 14 15 13 12 11 11 10 10 10 9 9 10 12 16 17
8 9 11 9 8 7 8 8 9 9 10 11 12 13 14 15 16 15 13 13 14 15 15 15 16 16 13 13 13 12 11 11 11 11 10 10 9 10 10 10 10 10 8 10
8 8 8 8 7 6 6 6 8 8 8 10 12 13 14 15 15 14 14 13 14 15 13 13 14 12 11 11 10 10 11 11 9 8 8 9 9 9 9 10 10 11 11 11
7 6 6 6 6 6 6 6 8 9 10 11 12 12 12 13 14 14 14 13 14 13 13 13 13 12 12 11 9 8 7 8 9 8 9 9 9 9 9 9 10 10 11 11
7 7 6 7 7 8 8 9 10 10 11 11 11 11 11 11 11 10 9 9 10 12 12 11 10 10 10 10 8 6 6 6 7 8 7 8 8 8 8 8 8 8 7 9
9 10 11 10 10 10 10 11 11 12 11 11 12 12 11 9 8 7 6 6 6 7 9 9 9 9 9 9 7 6 6 6 7 7 7 6 7 6 6 6 6 6 6 6
10 11 12 13 12 12 13 11 12 12 10 12 12 11 10 8 6 6 6 8 7 5 5 6 6 7 8 8 8 6 6 6 6 6 5 5 4 4 4 5 4 3 3 3
10 11 12 13 14 12 11 10 11 12 9 8 9 9 7 5 4 3 2 3 4 5 5 7 7 7 7 7 7 6 5 5 5 4 3 3 2 2 2 1 1 2 3 3
11 12 13 13 13 13 10 9 11 11 10 10 9 9 7 5 4 4 4 4 3 4 3 5 5 6 6 7 6 5 4 4 3 2 2 2 2 2 2 2 3 3 4 5
12 12 12 11 11 11 9 8 8 8 8 7 6 4 3 3 3 3 1 1 2 2 3 4 5 5 6 5 3 3 2 2 2 2 2 3 3 3 4 5 5 5 6 6
12 12 11 11 11 9 8 7 7 6 6 6 5 5 2 1 1 1 3 3 3 2 1 0 1 3 4 2 2 1 1 2 2 3 4 4 4 4 5 5 6 6 7 7
11 10 9 8 7 7 8 8 7 7 6 5 5 3 2 0 2 3 3 3 3 2 1 3 2 3 3 3 4 4 5 5 5 6 7 7 7 7 7 8 8 9 9 9
10 7 6 4 4 4 4 5 3 4 4 3 3 3 2 1 2 3 2 3 3 3 3 4 5 5 6 6 7 7 7 8 7 7 9 9 9 9 10 10 11 11 10 11
7 6 6 5 5 4 2 0 2 2 3 4 5 3 4 3 3 3 4 4 5 5 5 6 6 7 8 8 9 10 10 10 10 10 10 10 10 11 12 12 11 11 12 12